| time (UTC) | temp F | wind direction | speed knots | gust knots | rain 1hr in | rain 24hr in | rain mn in | humidity % | barometer mb |
| 20260504023204 | 70 | 0 | 0.0 | 0.0 | 0.00 | 0.00 | 0.00 | 56 | 1017.5 |
| 20260504023104 | 70 | 0 | 0.0 | 0.0 | 0.00 | 0.00 | 0.00 | 56 | 1017.5 |
| 20260504023004 | 70 | 0 | 0.0 | 0.0 | 0.00 | 0.00 | 0.00 | 56 | 1017.6 |
| 20260504022904 | 70 | 336 | 0.0 | 0.9 | 0.00 | 0.00 | 0.00 | 56 | 1017.6 |
| 20260504022804 | 70 | 336 | 0.0 | 0.9 | 0.00 | 0.00 | 0.00 | 56 | 1017.6 |
| 20260504022704 | 70 | 336 | 0.0 | 0.9 | 0.00 | 0.00 | 0.00 | 56 | 1017.6 |
| 20260504022625 | 70 | 336 | 0.0 | 0.9 | 0.00 | 0.00 | 0.00 | 56 | 1017.6 |
| 20260504022504 | 70 | 336 | 0.0 | 0.9 | 0.00 | 0.00 | 0.00 | 56 | 1017.7 |
| 20260504022404 | 70 | 336 | 0.0 | 0.9 | 0.00 | 0.00 | 0.00 | 56 | 1017.7 |
| 20260504022305 | 70 | 336 | 0.0 | 0.9 | 0.00 | 0.00 | 0.00 | 56 | 1017.7 |
| 20260504022204 | 70 | 335 | 0.0 | 2.6 | 0.00 | 0.00 | 0.00 | 56 | 1017.7 |
| 20260504022104 | 70 | 335 | 0.0 | 2.6 | 0.00 | 0.00 | 0.00 | 56 | 1017.6 |
| 20260504022004 | 70 | 335 | 0.0 | 2.6 | 0.00 | 0.00 | 0.00 | 55 | 1017.6 |
| 20260504021925 | 70 | 335 | 0.0 | 2.6 | 0.00 | 0.00 | 0.00 | 55 | 1017.6 |
| 20260504021804 | 70 | 335 | 0.0 | 2.6 | 0.00 | 0.00 | 0.00 | 55 | 1017.6 |
| 20260504021704 | 71 | 335 | 0.0 | 2.6 | 0.00 | 0.00 | 0.00 | 55 | 1017.6 |
| 20260504021604 | 71 | 335 | 0.0 | 2.6 | 0.00 | 0.00 | 0.00 | 54 | 1017.6 |
| 20260504021504 | 71 | 335 | 0.0 | 2.6 | 0.00 | 0.00 | 0.00 | 54 | 1017.5 |
| 20260504021426 | 71 | 335 | 0.0 | 2.6 | 0.00 | 0.00 | 0.00 | 54 | 1017.5 |
| 20260504021304 | 71 | 335 | 0.0 | 2.6 | 0.00 | 0.00 | 0.00 | 54 | 1017.5 |
| 20260504021205 | 71 | 335 | 0.0 | 1.7 | 0.00 | 0.00 | 0.00 | 54 | 1017.5 |
| 20260504021104 | 71 | 0 | 0.0 | 0.0 | 0.00 | 0.00 | 0.00 | 54 | 1017.5 |
| 20260504021004 | 71 | 0 | 0.0 | 0.0 | 0.00 | 0.00 | 0.00 | 54 | 1017.5 |
| 20260504020925 | 71 | 0 | 0.0 | 0.0 | 0.00 | 0.00 | 0.00 | 54 | 1017.5 |
| 20260504020804 | 71 | 0 | 0.0 | 0.0 | 0.00 | 0.00 | 0.00 | 54 | 1017.5 |
| 20260504020725 | 71 | 0 | 0.0 | 0.0 | 0.00 | 0.00 | 0.00 | 54 | 1017.4 |
| 20260504020604 | 71 | 0 | 0.0 | 0.0 | 0.00 | 0.00 | 0.00 | 54 | 1017.4 |
| 20260504020504 | 71 | 0 | 0.0 | 0.0 | 0.00 | 0.00 | 0.00 | 54 | 1017.4 |
| 20260504020404 | 71 | 0 | 0.0 | 0.0 | 0.00 | 0.00 | 0.00 | 54 | 1017.3 |
| 20260504020304 | 71 | 0 | 0.0 | 0.0 | 0.00 | 0.00 | 0.00 | 54 | 1017.3 |
| 20260504020204 | 71 | 0 | 0.0 | 0.0 | 0.00 | 0.00 | 0.00 | 54 | 1017.3 |
| 20260504020104 | 71 | 0 | 0.0 | 0.0 | 0.00 | 0.00 | 0.00 | 53 | 1017.3 |
| 20260504020004 | 71 | 0 | 0.0 | 0.0 | 0.00 | 0.00 | 0.00 | 54 | 1017.2 |
| 20260504015904 | 71 | 0 | 0.0 | 0.0 | 0.00 | 0.00 | 0.00 | 54 | 1017.2 |
| 20260504015804 | 71 | 0 | 0.0 | 0.0 | 0.00 | 0.00 | 0.00 | 54 | 1017.2 |
| 20260504015704 | 71 | 0 | 0.0 | 0.0 | 0.00 | 0.00 | 0.00 | 54 | 1017.2 |
| 20260504015604 | 71 | 0 | 0.0 | 0.0 | 0.00 | 0.00 | 0.00 | 54 | 1017.1 |
| 20260504015504 | 71 | 0 | 0.0 | 0.0 | 0.00 | 0.00 | 0.00 | 54 | 1017.1 |
| 20260504015404 | 71 | 0 | 0.0 | 0.0 | 0.00 | 0.00 | 0.00 | 54 | 1017.1 |
| 20260504015304 | 71 | 0 | 0.0 | 0.0 | 0.00 | 0.00 | 0.00 | 54 | 1017.1 |
| 20260504015204 | 71 | 0 | 0.0 | 0.0 | 0.00 | 0.00 | 0.00 | 54 | 1017.0 |
| 20260504015104 | 71 | 0 | 0.0 | 0.0 | 0.00 | 0.00 | 0.00 | 54 | 1017.0 |
| 20260504015004 | 71 | 0 | 0.0 | 0.0 | 0.00 | 0.00 | 0.00 | 54 | 1017.0 |
| 20260504014904 | 71 | 0 | 0.0 | 0.0 | 0.00 | 0.00 | 0.00 | 54 | 1017.0 |
| 20260504014825 | 71 | 0 | 0.0 | 0.0 | 0.00 | 0.00 | 0.00 | 54 | 1017.0 |
| 20260504014704 | 71 | 0 | 0.0 | 0.0 | 0.00 | 0.00 | 0.00 | 54 | 1017.0 |
| 20260504014604 | 71 | 0 | 0.0 | 0.0 | 0.00 | 0.00 | 0.00 | 54 | 1017.0 |
| 20260504014525 | 71 | 0 | 0.0 | 0.0 | 0.00 | 0.00 | 0.00 | 54 | 1016.9 |
| 20260504014404 | 71 | 0 | 0.0 | 0.0 | 0.00 | 0.00 | 0.00 | 54 | 1016.9 |
| 20260504014325 | 71 | 0 | 0.0 | 0.0 | 0.00 | 0.00 | 0.00 | 54 | 1016.9 |
| 20260504014204 | 72 | 0 | 0.0 | 0.0 | 0.00 | 0.00 | 0.00 | 54 | 1016.9 |
| 20260504014104 | 72 | 0 | 0.0 | 0.0 | 0.00 | 0.00 | 0.00 | 54 | 1016.9 |
| 20260504014025 | 72 | 0 | 0.0 | 0.0 | 0.00 | 0.00 | 0.00 | 53 | 1017.0 |
| 20260504013925 | 72 | 0 | 0.0 | 0.9 | 0.00 | 0.00 | 0.00 | 53 | 1017.0 |
| 20260504013804 | 72 | 0 | 0.0 | 0.9 | 0.00 | 0.00 | 0.00 | 53 | 1017.0 |
| 20260504013704 | 72 | 0 | 0.0 | 0.9 | 0.00 | 0.00 | 0.00 | 53 | 1017.0 |
| 20260504013625 | 72 | 0 | 0.0 | 0.9 | 0.00 | 0.00 | 0.00 | 53 | 1017.0 |
| 20260504013504 | 72 | 0 | 0.0 | 0.9 | 0.00 | 0.00 | 0.00 | 52 | 1017.0 |
| 20260504013404 | 72 | 0 | 0.0 | 0.9 | 0.00 | 0.00 | 0.00 | 52 | 1017.0 |
| 20260504013304 | 72 | 0 | 0.0 | 0.9 | 0.00 | 0.00 | 0.00 | 52 | 1017.0 |
| 20260504013204 | 72 | 0 | 0.0 | 0.9 | 0.00 | 0.00 | 0.00 | 52 | 1017.0 |
| 20260504013104 | 72 | 0 | 0.0 | 0.9 | 0.00 | 0.00 | 0.00 | 52 | 1016.9 |
| 20260504013025 | 72 | 0 | 0.0 | 0.9 | 0.00 | 0.00 | 0.00 | 52 | 1016.9 |
| 20260504012925 | 72 | 333 | 0.0 | 1.7 | 0.00 | 0.00 | 0.00 | 51 | 1016.9 |
| 20260504012804 | 72 | 333 | 0.0 | 1.7 | 0.00 | 0.00 | 0.00 | 51 | 1016.8 |
| 20260504012704 | 72 | 333 | 0.0 | 1.7 | 0.00 | 0.00 | 0.00 | 51 | 1016.9 |
| 20260504012604 | 72 | 333 | 0.0 | 1.7 | 0.00 | 0.00 | 0.00 | 51 | 1016.9 |
| 20260504012504 | 73 | 333 | 0.0 | 1.7 | 0.00 | 0.00 | 0.00 | 51 | 1016.9 |
| 20260504012404 | 73 | 333 | 0.0 | 1.7 | 0.00 | 0.00 | 0.00 | 51 | 1017.0 |
| 20260504012304 | 73 | 333 | 0.0 | 1.7 | 0.00 | 0.00 | 0.00 | 51 | 1017.0 |
| 20260504012204 | 73 | 333 | 0.0 | 1.7 | 0.00 | 0.00 | 0.00 | 51 | 1017.0 |
| 20260504012125 | 73 | 333 | 0.0 | 1.7 | 0.00 | 0.00 | 0.00 | 51 | 1017.0 |
| 20260504012004 | 73 | 333 | 0.0 | 1.7 | 0.00 | 0.00 | 0.00 | 50 | 1017.0 |
| 20260504011925 | 73 | 333 | 0.0 | 1.7 | 0.00 | 0.00 | 0.00 | 50 | 1017.0 |
| 20260504011825 | 73 | 333 | 0.0 | 1.7 | 0.00 | 0.00 | 0.00 | 50 | 1016.9 |
| 20260504011704 | 73 | 333 | 0.0 | 1.7 | 0.00 | 0.00 | 0.00 | 50 | 1017.0 |
| 20260504011604 | 73 | 333 | 0.0 | 1.7 | 0.00 | 0.00 | 0.00 | 50 | 1017.0 |
| 20260504011504 | 73 | 333 | 0.0 | 1.7 | 0.00 | 0.00 | 0.00 | 50 | 1017.0 |
| 20260504011404 | 73 | 333 | 0.0 | 1.7 | 0.00 | 0.00 | 0.00 | 49 | 1017.0 |
| 20260504011304 | 73 | 0 | 0.0 | 0.0 | 0.00 | 0.00 | 0.00 | 49 | 1017.0 |
| 20260504011204 | 73 | 0 | 0.0 | 0.0 | 0.00 | 0.00 | 0.00 | 49 | 1017.0 |
| 20260504011104 | 74 | 333 | 0.0 | 3.5 | 0.00 | 0.00 | 0.00 | 49 | 1017.0 |
| 20260504011004 | 74 | 333 | 0.0 | 3.5 | 0.00 | 0.00 | 0.00 | 49 | 1017.0 |
| 20260504010904 | 74 | 333 | 0.0 | 3.5 | 0.00 | 0.00 | 0.00 | 49 | 1017.0 |
| 20260504010804 | 74 | 333 | 0.0 | 3.5 | 0.00 | 0.00 | 0.00 | 49 | 1017.0 |
| 20260504010704 | 74 | 333 | 0.0 | 3.5 | 0.00 | 0.00 | 0.00 | 49 | 1017.0 |
| 20260504010604 | 74 | 333 | 0.0 | 3.5 | 0.00 | 0.00 | 0.00 | 48 | 1017.0 |
| 20260504010504 | 74 | 333 | 0.0 | 3.5 | 0.00 | 0.00 | 0.00 | 48 | 1017.0 |
| 20260504010425 | 74 | 334 | 0.0 | 3.5 | 0.00 | 0.00 | 0.00 | 48 | 1017.0 |
| 20260504010304 | 74 | 334 | 0.0 | 3.5 | 0.00 | 0.00 | 0.00 | 48 | 1016.9 |
| 20260504010204 | 74 | 333 | 0.0 | 3.5 | 0.00 | 0.00 | 0.00 | 48 | 1016.9 |
| 20260504010104 | 74 | 334 | 0.0 | 2.6 | 0.00 | 0.00 | 0.00 | 48 | 1016.9 |
| 20260504010004 | 74 | 333 | 0.0 | 2.6 | 0.00 | 0.00 | 0.00 | 48 | 1016.9 |
| 20260504005904 | 74 | 333 | 0.0 | 2.6 | 0.00 | 0.00 | 0.00 | 47 | 1016.9 |
| 20260504005804 | 74 | 332 | 0.0 | 2.6 | 0.00 | 0.00 | 0.00 | 47 | 1016.9 |
| 20260504005704 | 74 | 329 | 0.0 | 2.6 | 0.00 | 0.00 | 0.00 | 47 | 1016.9 |
| 20260504005604 | 74 | 329 | 0.0 | 2.6 | 0.00 | 0.00 | 0.00 | 47 | 1016.9 |
| 20260504005504 | 75 | 329 | 0.0 | 2.6 | 0.00 | 0.00 | 0.00 | 47 | 1016.9 |
| 20260504005425 | 75 | 327 | 0.0 | 2.6 | 0.00 | 0.00 | 0.00 | 47 | 1016.9 |
| 20260504005305 | 75 | 327 | 0.0 | 2.6 | 0.00 | 0.00 | 0.00 | 47 | 1017.0 |
| 20260504005204 | 75 | 326 | 0.0 | 2.6 | 0.00 | 0.00 | 0.00 | 47 | 1016.9 |
| 20260504005104 | 75 | 344 | 0.0 | 2.6 | 0.00 | 0.00 | 0.00 | 46 | 1016.9 |
| 20260504005004 | 75 | 1 | 0.0 | 3.5 | 0.00 | 0.00 | 0.00 | 46 | 1016.9 |
| 20260504004904 | 75 | 1 | 0.0 | 3.5 | 0.00 | 0.00 | 0.00 | 46 | 1016.9 |
| 20260504004825 | 75 | 1 | 0.0 | 3.5 | 0.00 | 0.00 | 0.00 | 46 | 1016.9 |
| 20260504004725 | 75 | 5 | 0.0 | 3.5 | 0.00 | 0.00 | 0.00 | 46 | 1016.9 |
| 20260504004604 | 75 | 21 | 0.0 | 3.5 | 0.00 | 0.00 | 0.00 | 45 | 1016.9 |
| 20260504004525 | 75 | 21 | 0.0 | 3.5 | 0.00 | 0.00 | 0.00 | 45 | 1016.9 |
| 20260504004404 | 75 | 21 | 0.0 | 3.5 | 0.00 | 0.00 | 0.00 | 45 | 1016.9 |
| 20260504004304 | 76 | 21 | 0.0 | 3.5 | 0.00 | 0.00 | 0.00 | 45 | 1016.8 |
| 20260504004204 | 76 | 21 | 0.0 | 3.5 | 0.00 | 0.00 | 0.00 | 45 | 1016.9 |
| 20260504004104 | 76 | 20 | 0.0 | 3.5 | 0.00 | 0.00 | 0.00 | 45 | 1016.9 |
| 20260504004004 | 76 | 329 | 0.0 | 0.9 | 0.00 | 0.00 | 0.00 | 44 | 1016.8 |
| 20260504003904 | 76 | 329 | 0.0 | 0.9 | 0.00 | 0.00 | 0.00 | 44 | 1016.8 |
| 20260504003804 | 76 | 0 | 0.0 | 0.0 | 0.00 | 0.00 | 0.00 | 44 | 1016.8 |
| 20260504003704 | 76 | 0 | 0.0 | 0.0 | 0.00 | 0.00 | 0.00 | 44 | 1016.9 |
| 20260504003604 | 76 | 0 | 0.0 | 0.0 | 0.00 | 0.00 | 0.00 | 44 | 1016.9 |
| 20260504003504 | 76 | 347 | 0.0 | 4.3 | 0.00 | 0.00 | 0.00 | 44 | 1016.9 |
| 20260504003404 | 76 | 29 | 0.0 | 4.3 | 0.00 | 0.00 | 0.00 | 44 | 1016.9 |
| 20260504003304 | 76 | 44 | 0.0 | 4.3 | 0.00 | 0.00 | 0.00 | 44 | 1017.0 |
| 20260504003225 | 76 | 44 | 0.0 | 4.3 | 0.00 | 0.00 | 0.00 | 44 | 1016.9 |
| 20260504003125 | 76 | 43 | 0.9 | 4.3 | 0.00 | 0.00 | 0.00 | 44 | 1016.9 |
| 20260504003004 | 77 | 43 | 0.9 | 4.3 | 0.00 | 0.00 | 0.00 | 44 | 1017.0 |
| 20260504002904 | 77 | 43 | 0.9 | 4.3 | 0.00 | 0.00 | 0.00 | 43 | 1017.0 |
| 20260504002804 | 77 | 43 | 0.9 | 4.3 | 0.00 | 0.00 | 0.00 | 43 | 1017.0 |
| 20260504002704 | 77 | 36 | 0.9 | 4.3 | 0.00 | 0.00 | 0.00 | 44 | 1017.0 |
| 20260504002625 | 77 | 36 | 0.9 | 4.3 | 0.00 | 0.00 | 0.00 | 43 | 1017.0 |
| 20260504002504 | 77 | 27 | 0.9 | 4.3 | 0.00 | 0.00 | 0.00 | 43 | 1017.0 |
| 20260504002404 | 77 | 23 | 0.0 | 4.3 | 0.00 | 0.00 | 0.00 | 43 | 1017.0 |
| 20260504002304 | 77 | 12 | 0.9 | 4.3 | 0.00 | 0.00 | 0.00 | 44 | 1017.0 |
| 20260504002204 | 77 | 16 | 0.9 | 4.3 | 0.00 | 0.00 | 0.00 | 43 | 1017.0 |
| 20260504002104 | 77 | 13 | 0.9 | 7.0 | 0.00 | 0.00 | 0.00 | 43 | 1017.1 |
| 20260504002004 | 77 | 17 | 0.9 | 7.0 | 0.00 | 0.00 | 0.00 | 43 | 1017.1 |
| 20260504001904 | 77 | 17 | 0.9 | 7.0 | 0.00 | 0.00 | 0.00 | 43 | 1017.1 |
| 20260504001804 | 77 | 17 | 0.9 | 7.0 | 0.00 | 0.00 | 0.00 | 43 | 1017.0 |
| 20260504001704 | 77 | 19 | 0.9 | 7.0 | 0.00 | 0.00 | 0.00 | 43 | 1017.1 |
| 20260504001604 | 77 | 21 | 0.9 | 7.0 | 0.00 | 0.00 | 0.00 | 42 | 1017.1 |
| 20260504001504 | 77 | 31 | 0.9 | 7.0 | 0.00 | 0.00 | 0.00 | 42 | 1017.1 |
| 20260504001425 | 77 | 30 | 0.9 | 7.0 | 0.00 | 0.00 | 0.00 | 43 | 1017.1 |
| 20260504001304 | 77 | 30 | 0.9 | 7.0 | 0.00 | 0.00 | 0.00 | 42 | 1017.2 |
| 20260504001225 | 77 | 27 | 0.9 | 7.0 | 0.00 | 0.00 | 0.00 | 42 | 1017.2 |
| 20260504001104 | 77 | 38 | 0.0 | 4.3 | 0.00 | 0.00 | 0.00 | 43 | 1017.3 |
| 20260504001025 | 77 | 37 | 0.9 | 4.3 | 0.00 | 0.00 | 0.00 | 43 | 1017.2 |
| 20260504000904 | 77 | 29 | 0.9 | 7.0 | 0.00 | 0.00 | 0.00 | 43 | 1017.3 |
| 20260504000804 | 77 | 31 | 0.9 | 7.0 | 0.00 | 0.00 | 0.00 | 43 | 1017.3 |
| 20260504000704 | 77 | 35 | 0.9 | 8.7 | 0.00 | 0.00 | 0.00 | 43 | 1017.3 |
| 20260504000604 | 77 | 36 | 0.9 | 8.7 | 0.00 | 0.00 | 0.00 | 43 | 1017.3 |
| 20260504000525 | 77 | 36 | 0.9 | 8.7 | 0.00 | 0.00 | 0.00 | 43 | 1017.3 |
| 20260504000425 | 77 | 36 | 0.9 | 8.7 | 0.00 | 0.00 | 0.00 | 43 | 1017.3 |
| 20260504000304 | 77 | 35 | 0.9 | 8.7 | 0.00 | 0.00 | 0.00 | 43 | 1017.4 |
| 20260504000204 | 77 | 37 | 0.9 | 8.7 | 0.00 | 0.00 | 0.00 | 43 | 1017.4 |
| 20260504000125 | 77 | 37 | 1.7 | 8.7 | 0.00 | 0.00 | 0.00 | 43 | 1017.4 |
| 20260504000004 | 77 | 37 | 0.9 | 8.7 | 0.00 | 0.00 | 0.00 | 43 | 1017.4 |
| 20260503235904 | 77 | 41 | 0.9 | 8.7 | 0.00 | 0.00 | 0.00 | 42 | 1017.4 |
| 20260503235825 | 77 | 41 | 0.9 | 8.7 | 0.00 | 0.00 | 0.00 | 42 | 1017.4 |
| 20260503235704 | 77 | 40 | 0.9 | 7.0 | 0.00 | 0.00 | 0.00 | 43 | 1017.4 |
| 20260503235604 | 78 | 40 | 0.9 | 7.0 | 0.00 | 0.00 | 0.00 | 42 | 1017.4 |
| 20260503235525 | 78 | 40 | 0.9 | 7.0 | 0.00 | 0.00 | 0.00 | 42 | 1017.3 |
| 20260503235404 | 78 | 40 | 0.9 | 7.0 | 0.00 | 0.00 | 0.00 | 43 | 1017.4 |
| 20260503235304 | 78 | 41 | 0.9 | 7.0 | 0.00 | 0.00 | 0.00 | 43 | 1017.3 |
| 20260503235204 | 78 | 40 | 0.9 | 7.0 | 0.00 | 0.00 | 0.00 | 42 | 1017.3 |
| 20260503235104 | 78 | 45 | 0.0 | 4.3 | 0.00 | 0.00 | 0.00 | 43 | 1017.3 |
| 20260503235004 | 78 | 43 | 0.0 | 4.3 | 0.00 | 0.00 | 0.00 | 43 | 1017.3 |
| 20260503234925 | 78 | 42 | 0.0 | 4.3 | 0.00 | 0.00 | 0.00 | 43 | 1017.3 |
| 20260503234804 | 78 | 43 | 0.0 | 4.3 | 0.00 | 0.00 | 0.00 | 42 | 1017.3 |
| 20260503234704 | 78 | 342 | 0.0 | 0.9 | 0.00 | 0.00 | 0.00 | 42 | 1017.4 |
| 20260503234604 | 78 | 342 | 0.0 | 0.9 | 0.00 | 0.00 | 0.00 | 42 | 1017.4 |
| 20260503234525 | 78 | 342 | 0.0 | 0.9 | 0.00 | 0.00 | 0.00 | 42 | 1017.4 |
| 20260503234404 | 78 | 9 | 0.0 | 0.9 | 0.00 | 0.00 | 0.00 | 42 | 1017.4 |
| 20260503234304 | 78 | 9 | 0.0 | 0.9 | 0.00 | 0.00 | 0.00 | 41 | 1017.4 |
| 20260503234204 | 78 | 9 | 0.0 | 0.9 | 0.00 | 0.00 | 0.00 | 40 | 1017.4 |
| 20260503234104 | 78 | 9 | 0.0 | 0.9 | 0.00 | 0.00 | 0.00 | 41 | 1017.4 |
| 20260503234004 | 78 | 359 | 0.0 | 0.9 | 0.00 | 0.00 | 0.00 | 40 | 1017.5 |
| 20260503233925 | 78 | 3 | 0.0 | 0.9 | 0.00 | 0.00 | 0.00 | 40 | 1017.5 |
| 20260503233804 | 78 | 3 | 0.0 | 0.9 | 0.00 | 0.00 | 0.00 | 40 | 1017.5 |
| 20260503233704 | 78 | 3 | 0.0 | 0.9 | 0.00 | 0.00 | 0.00 | 40 | 1017.5 |
| 20260503233604 | 78 | 3 | 0.0 | 0.9 | 0.00 | 0.00 | 0.00 | 41 | 1017.6 |
| 20260503233504 | 78 | 355 | 0.0 | 0.9 | 0.00 | 0.00 | 0.00 | 41 | 1017.6 |
| 20260503233425 | 78 | 355 | 0.0 | 0.9 | 0.00 | 0.00 | 0.00 | 41 | 1017.5 |
| 20260503233304 | 78 | 334 | 0.0 | 0.9 | 0.00 | 0.00 | 0.00 | 41 | 1017.5 |
| 20260503233204 | 78 | 334 | 0.0 | 0.9 | 0.00 | 0.00 | 0.00 | 40 | 1017.6 |
| 20260503233104 | 78 | 334 | 0.0 | 0.9 | 0.00 | 0.00 | 0.00 | 40 | 1017.5 |
| 20260503233004 | 78 | 0 | 0.0 | 0.9 | 0.00 | 0.00 | 0.00 | 40 | 1017.5 |
| 20260503232904 | 78 | 0 | 0.0 | 0.9 | 0.00 | 0.00 | 0.00 | 41 | 1017.5 |
| 20260503232804 | 78 | 0 | 0.0 | 0.9 | 0.00 | 0.00 | 0.00 | 42 | 1017.5 |
| 20260503232704 | 78 | 0 | 0.0 | 0.9 | 0.00 | 0.00 | 0.00 | 41 | 1017.5 |
| 20260503232604 | 78 | 0 | 0.0 | 0.9 | 0.00 | 0.00 | 0.00 | 41 | 1017.5 |
| 20260503232504 | 78 | 0 | 0.0 | 0.9 | 0.00 | 0.00 | 0.00 | 41 | 1017.5 |
| 20260503232404 | 78 | 0 | 0.0 | 0.9 | 0.00 | 0.00 | 0.00 | 41 | 1017.5 |
| 20260503232305 | 78 | 0 | 0.0 | 0.9 | 0.00 | 0.00 | 0.00 | 41 | 1017.6 |
| 20260503232204 | 78 | 0 | 0.0 | 7.8 | 0.00 | 0.00 | 0.00 | 41 | 1017.6 |
| 20260503232104 | 78 | 14 | 0.0 | 7.8 | 0.00 | 0.00 | 0.00 | 41 | 1017.6 |
| 20260503232004 | 78 | 14 | 0.0 | 7.8 | 0.00 | 0.00 | 0.00 | 40 | 1017.6 |
| 20260503231925 | 78 | 14 | 0.0 | 7.8 | 0.00 | 0.00 | 0.00 | 40 | 1017.5 |
| 20260503231804 | 78 | 5 | 0.0 | 7.8 | 0.00 | 0.00 | 0.00 | 39 | 1017.5 |
| 20260503231704 | 78 | 357 | 0.0 | 7.8 | 0.00 | 0.00 | 0.00 | 39 | 1017.5 |
| 20260503231604 | 78 | 349 | 0.0 | 7.8 | 0.00 | 0.00 | 0.00 | 39 | 1017.4 |
| 20260503231504 | 78 | 356 | 0.0 | 7.8 | 0.00 | 0.00 | 0.00 | 39 | 1017.4 |
| 20260503231404 | 78 | 344 | 0.9 | 7.8 | 0.00 | 0.00 | 0.00 | 39 | 1017.4 |
| 20260503231304 | 78 | 2 | 0.9 | 7.8 | 0.00 | 0.00 | 0.00 | 38 | 1017.4 |
| 20260503231225 | 78 | 5 | 1.7 | 8.7 | 0.00 | 0.00 | 0.00 | 38 | 1017.4 |
| 20260503231104 | 79 | 2 | 1.7 | 8.7 | 0.00 | 0.00 | 0.00 | 38 | 1017.4 |
| 20260503231004 | 79 | 2 | 1.7 | 8.7 | 0.00 | 0.00 | 0.00 | 38 | 1017.4 |
| 20260503230904 | 79 | 10 | 1.7 | 8.7 | 0.00 | 0.00 | 0.00 | 38 | 1017.4 |
| 20260503230804 | 79 | 18 | 2.6 | 8.7 | 0.00 | 0.00 | 0.00 | 38 | 1017.4 |
| 20260503230704 | 79 | 22 | 2.6 | 8.7 | 0.00 | 0.00 | 0.00 | 39 | 1017.4 |
| 20260503230604 | 79 | 28 | 2.6 | 8.7 | 0.00 | 0.00 | 0.00 | 38 | 1017.3 |
| 20260503230504 | 80 | 30 | 2.6 | 8.7 | 0.00 | 0.00 | 0.00 | 37 | 1017.4 |
| 20260503230404 | 80 | 38 | 2.6 | 8.7 | 0.00 | 0.00 | 0.00 | 38 | 1017.4 |
| 20260503230304 | 80 | 34 | 2.6 | 8.7 | 0.00 | 0.00 | 0.00 | 38 | 1017.4 |
| 20260503230204 | 80 | 36 | 2.6 | 7.8 | 0.00 | 0.00 | 0.00 | 38 | 1017.4 |
| 20260503230125 | 80 | 42 | 2.6 | 7.0 | 0.00 | 0.00 | 0.00 | 39 | 1017.4 |
| 20260503230004 | 80 | 40 | 2.6 | 7.0 | 0.00 | 0.00 | 0.00 | 39 | 1017.4 |
| 20260503225904 | 80 | 38 | 2.6 | 7.0 | 0.00 | 0.00 | 0.00 | 38 | 1017.5 |
| 20260503225804 | 80 | 29 | 1.7 | 7.0 | 0.00 | 0.00 | 0.00 | 37 | 1017.6 |
| 20260503225704 | 80 | 25 | 2.6 | 7.0 | 0.00 | 0.00 | 0.00 | 37 | 1017.7 |
| 20260503225604 | 80 | 15 | 2.6 | 9.6 | 0.00 | 0.00 | 0.00 | 38 | 1017.6 |
| 20260503225504 | 80 | 13 | 2.6 | 9.6 | 0.00 | 0.00 | 0.00 | 38 | 1017.6 |
| 20260503225404 | 80 | 15 | 2.6 | 9.6 | 0.00 | 0.00 | 0.00 | 38 | 1017.5 |
| 20260503225304 | 80 | 17 | 3.5 | 9.6 | 0.00 | 0.00 | 0.00 | 38 | 1017.5 |
| 20260503225204 | 80 | 18 | 3.5 | 11.3 | 0.00 | 0.00 | 0.00 | 37 | 1017.4 |
| 20260503225104 | 80 | 21 | 4.3 | 11.3 | 0.00 | 0.00 | 0.00 | 38 | 1017.4 |
| 20260503225004 | 80 | 24 | 5.2 | 11.3 | 0.00 | 0.00 | 0.00 | 38 | 1017.4 |
| 20260503224904 | 80 | 23 | 5.2 | 11.3 | 0.00 | 0.00 | 0.00 | 37 | 1017.4 |
| 20260503224804 | 80 | 26 | 5.2 | 11.3 | 0.00 | 0.00 | 0.00 | 37 | 1017.5 |
| 20260503224725 | 80 | 28 | 5.2 | 11.3 | 0.00 | 0.00 | 0.00 | 38 | 1017.6 |
| 20260503224604 | 80 | 32 | 5.2 | 11.3 | 0.00 | 0.00 | 0.00 | 39 | 1017.7 |
| 20260503224504 | 80 | 34 | 5.2 | 11.3 | 0.00 | 0.00 | 0.00 | 38 | 1017.8 |
| 20260503224404 | 80 | 35 | 6.1 | 11.3 | 0.00 | 0.00 | 0.00 | 38 | 1017.8 |
| 20260503224304 | 80 | 34 | 6.1 | 11.3 | 0.00 | 0.00 | 0.00 | 37 | 1017.8 |
| 20260503224225 | 80 | 34 | 5.2 | 13.0 | 0.00 | 0.00 | 0.00 | 37 | 1017.8 |
| 20260503224104 | 80 | 34 | 5.2 | 13.0 | 0.00 | 0.00 | 0.00 | 37 | 1017.7 |
| 20260503224025 | 80 | 31 | 5.2 | 13.0 | 0.00 | 0.00 | 0.00 | 37 | 1017.8 |
| 20260503223904 | 80 | 31 | 5.2 | 13.0 | 0.00 | 0.00 | 0.00 | 38 | 1017.8 |
| 20260503223804 | 80 | 30 | 6.1 | 13.0 | 0.00 | 0.00 | 0.00 | 37 | 1017.8 |
| 20260503223725 | 80 | 30 | 6.1 | 13.0 | 0.00 | 0.00 | 0.00 | 39 | 1017.8 |
| 20260503223604 | 80 | 29 | 6.1 | 13.0 | 0.00 | 0.00 | 0.00 | 38 | 1017.9 |
| 20260503223504 | 80 | 28 | 6.1 | 13.0 | 0.00 | 0.00 | 0.00 | 38 | 1017.9 |
| 20260503223404 | 80 | 27 | 5.2 | 14.8 | 0.00 | 0.00 | 0.00 | 38 | 1017.9 |
| 20260503223304 | 80 | 27 | 4.3 | 14.8 | 0.00 | 0.00 | 0.00 | 38 | 1017.9 |
| 20260503223204 | 80 | 28 | 4.3 | 14.8 | 0.00 | 0.00 | 0.00 | 38 | 1017.9 |
| 20260503223104 | 80 | 24 | 4.3 | 14.8 | 0.00 | 0.00 | 0.00 | 38 | 1017.9 |
| 20260503223004 | 80 | 24 | 4.3 | 14.8 | 0.00 | 0.00 | 0.00 | 39 | 1017.8 |
| 20260503222925 | 80 | 22 | 3.5 | 14.8 | 0.00 | 0.00 | 0.00 | 39 | 1017.8 |
| 20260503222804 | 80 | 23 | 2.6 | 14.8 | 0.00 | 0.00 | 0.00 | 39 | 1017.8 |
| 20260503222704 | 80 | 20 | 2.6 | 14.8 | 0.00 | 0.00 | 0.00 | 39 | 1017.8 |
| 20260503222604 | 80 | 17 | 1.7 | 14.8 | 0.00 | 0.00 | 0.00 | 38 | 1017.8 |
| 20260503222504 | 80 | 8 | 0.9 | 14.8 | 0.00 | 0.00 | 0.00 | 39 | 1017.9 |
| 20260503222404 | 80 | 354 | 0.9 | 7.0 | 0.00 | 0.00 | 0.00 | 38 | 1017.9 |
| 20260503222304 | 80 | 11 | 1.7 | 9.6 | 0.00 | 0.00 | 0.00 | 38 | 1017.9 |
| 20260503222204 | 80 | 18 | 1.7 | 9.6 | 0.00 | 0.00 | 0.00 | 38 | 1017.9 |
| 20260503222104 | 80 | 25 | 1.7 | 9.6 | 0.00 | 0.00 | 0.00 | 39 | 1018.0 |
| 20260503222004 | 80 | 37 | 1.7 | 9.6 | 0.00 | 0.00 | 0.00 | 40 | 1018.0 |
| 20260503221904 | 80 | 38 | 0.9 | 9.6 | 0.00 | 0.00 | 0.00 | 39 | 1018.0 |
| 20260503221804 | 80 | 37 | 0.9 | 9.6 | 0.00 | 0.00 | 0.00 | 38 | 1018.0 |
| 20260503221704 | 80 | 36 | 0.9 | 9.6 | 0.00 | 0.00 | 0.00 | 38 | 1018.0 |
| 20260503221604 | 80 | 35 | 1.7 | 9.6 | 0.00 | 0.00 | 0.00 | 38 | 1018.1 |
| 20260503221525 | 80 | 38 | 1.7 | 9.6 | 0.00 | 0.00 | 0.00 | 39 | 1018.1 |
| 20260503221425 | 80 | 39 | 1.7 | 11.3 | 0.00 | 0.00 | 0.00 | 38 | 1018.1 |
| 20260503221304 | 80 | 40 | 0.9 | 11.3 | 0.00 | 0.00 | 0.00 | 39 | 1018.1 |
| 20260503221204 | 80 | 44 | 0.9 | 11.3 | 0.00 | 0.00 | 0.00 | 38 | 1018.1 |
| 20260503221125 | 81 | 41 | 0.9 | 11.3 | 0.00 | 0.00 | 0.00 | 38 | 1018.1 |
| 20260503221004 | 81 | 38 | 0.9 | 11.3 | 0.00 | 0.00 | 0.00 | 38 | 1018.1 |
| 20260503220904 | 81 | 36 | 0.9 | 11.3 | 0.00 | 0.00 | 0.00 | 38 | 1018.1 |
| 20260503220825 | 80 | 36 | 0.9 | 11.3 | 0.00 | 0.00 | 0.00 | 39 | 1018.1 |
| 20260503220704 | 80 | 39 | 0.9 | 11.3 | 0.00 | 0.00 | 0.00 | 38 | 1018.1 |
| 20260503220604 | 80 | 39 | 0.9 | 11.3 | 0.00 | 0.00 | 0.00 | 39 | 1018.2 |
| 20260503220504 | 80 | 32 | 0.9 | 11.3 | 0.00 | 0.00 | 0.00 | 40 | 1018.1 |
| 20260503220404 | 80 | 18 | 0.9 | 7.0 | 0.00 | 0.00 | 0.00 | 38 | 1018.1 |
| 20260503220304 | 81 | 23 | 0.9 | 7.0 | 0.00 | 0.00 | 0.00 | 37 | 1018.1 |
| 20260503220225 | 81 | 24 | 0.9 | 7.0 | 0.00 | 0.00 | 0.00 | 37 | 1018.1 |
| 20260503220104 | 81 | 33 | 1.7 | 7.0 | 0.00 | 0.00 | 0.00 | 38 | 1018.1 |
| 20260503220004 | 81 | 38 | 1.7 | 9.6 | 0.00 | 0.00 | 0.00 | 39 | 1018.2 |
| 20260503215904 | 81 | 39 | 1.7 | 9.6 | 0.00 | 0.00 | 0.00 | 39 | 1018.1 |
| 20260503215804 | 80 | 39 | 1.7 | 9.6 | 0.00 | 0.00 | 0.00 | 40 | 1018.1 |
| 20260503215704 | 80 | 39 | 1.7 | 9.6 | 0.00 | 0.00 | 0.00 | 38 | 1018.2 |
| 20260503215604 | 80 | 40 | 1.7 | 9.6 | 0.00 | 0.00 | 0.00 | 39 | 1018.1 |
| 20260503215504 | 80 | 42 | 1.7 | 9.6 | 0.00 | 0.00 | 0.00 | 39 | 1018.1 |
| 20260503215404 | 80 | 43 | 0.9 | 9.6 | 0.00 | 0.00 | 0.00 | 38 | 1018.2 |
| 20260503215304 | 80 | 46 | 0.9 | 9.6 | 0.00 | 0.00 | 0.00 | 38 | 1018.2 |
| 20260503215204 | 80 | 49 | 0.9 | 9.6 | 0.00 | 0.00 | 0.00 | 37 | 1018.2 |
| 20260503215104 | 81 | 43 | 0.0 | 9.6 | 0.00 | 0.00 | 0.00 | 38 | 1018.2 |
| 20260503215004 | 80 | 9 | 0.9 | 6.1 | 0.00 | 0.00 | 0.00 | 39 | 1018.3 |
| 20260503214904 | 80 | 352 | 0.9 | 6.1 | 0.00 | 0.00 | 0.00 | 38 | 1018.2 |
| 20260503214804 | 80 | 11 | 0.9 | 7.8 | 0.00 | 0.00 | 0.00 | 37 | 1018.3 |
| 20260503214704 | 80 | 21 | 0.9 | 10.4 | 0.00 | 0.00 | 0.00 | 37 | 1018.3 |
| 20260503214604 | 81 | 20 | 0.9 | 10.4 | 0.00 | 0.00 | 0.00 | 38 | 1018.3 |
| 20260503214504 | 81 | 19 | 0.9 | 10.4 | 0.00 | 0.00 | 0.00 | 37 | 1018.4 |
| 20260503214404 | 81 | 16 | 1.7 | 10.4 | 0.00 | 0.00 | 0.00 | 36 | 1018.4 |
| 20260503214304 | 81 | 10 | 1.7 | 10.4 | 0.00 | 0.00 | 0.00 | 36 | 1018.4 |
| 20260503214204 | 81 | 9 | 2.6 | 10.4 | 0.00 | 0.00 | 0.00 | 36 | 1018.5 |
| 20260503214104 | 81 | 9 | 2.6 | 10.4 | 0.00 | 0.00 | 0.00 | 36 | 1018.6 |
| 20260503214004 | 81 | 10 | 1.7 | 10.4 | 0.00 | 0.00 | 0.00 | 37 | 1018.6 |
| 20260503213904 | 81 | 15 | 1.7 | 10.4 | 0.00 | 0.00 | 0.00 | 37 | 1018.6 |
| 20260503213804 | 81 | 9 | 1.7 | 10.4 | 0.00 | 0.00 | 0.00 | 37 | 1018.7 |
| 20260503213704 | 81 | 360 | 1.7 | 8.7 | 0.00 | 0.00 | 0.00 | 37 | 1018.6 |
| 20260503213604 | 81 | 360 | 1.7 | 8.7 | 0.00 | 0.00 | 0.00 | 37 | 1018.7 |
| 20260503213504 | 81 | 360 | 0.9 | 8.7 | 0.00 | 0.00 | 0.00 | 36 | 1018.7 |
| 20260503213404 | 81 | 353 | 0.9 | 8.7 | 0.00 | 0.00 | 0.00 | 36 | 1018.7 |
| 20260503213304 | 81 | 352 | 0.0 | 8.7 | 0.00 | 0.00 | 0.00 | 37 | 1018.7 |
| 20260503213204 | 81 | 356 | 0.0 | 8.7 | 0.00 | 0.00 | 0.00 | 38 | 1018.7 |
| 20260503213104 | 80 | 348 | 0.0 | 8.7 | 0.00 | 0.00 | 0.00 | 37 | 1018.8 |
| 20260503213004 | 80 | 2 | 0.0 | 3.5 | 0.00 | 0.00 | 0.00 | 37 | 1018.8 |
| 20260503212904 | 80 | 1 | 0.0 | 3.5 | 0.00 | 0.00 | 0.00 | 37 | 1018.7 |
| 20260503212804 | 80 | 336 | 0.0 | 3.5 | 0.00 | 0.00 | 0.00 | 38 | 1018.7 |
| 20260503212704 | 80 | 303 | 0.9 | 11.3 | 0.00 | 0.00 | 0.00 | 36 | 1018.7 |
| 20260503212604 | 80 | 308 | 0.9 | 11.3 | 0.00 | 0.00 | 0.00 | 36 | 1018.6 |
| 20260503212504 | 80 | 308 | 0.9 | 11.3 | 0.00 | 0.00 | 0.00 | 36 | 1018.7 |
| 20260503212404 | 80 | 311 | 0.9 | 11.3 | 0.00 | 0.00 | 0.00 | 35 | 1018.6 |
| 20260503212325 | 80 | 314 | 0.9 | 11.3 | 0.00 | 0.00 | 0.00 | 35 | 1018.7 |
| 20260503212204 | 80 | 317 | 0.9 | 11.3 | 0.00 | 0.00 | 0.00 | 35 | 1018.7 |
| 20260503212104 | 80 | 317 | 0.9 | 11.3 | 0.00 | 0.00 | 0.00 | 34 | 1018.7 |
| 20260503212004 | 80 | 320 | 0.9 | 11.3 | 0.00 | 0.00 | 0.00 | 35 | 1018.7 |
| 20260503211904 | 80 | 328 | 1.7 | 11.3 | 0.00 | 0.00 | 0.00 | 35 | 1018.8 |
| 20260503211804 | 80 | 334 | 1.7 | 11.3 | 0.00 | 0.00 | 0.00 | 34 | 1018.8 |
| 20260503211704 | 81 | 8 | 0.9 | 7.0 | 0.00 | 0.00 | 0.00 | 35 | 1018.9 |
| 20260503211625 | 81 | 39 | 0.9 | 5.2 | 0.00 | 0.00 | 0.00 | 34 | 1018.9 |
| 20260503211525 | 81 | 37 | 0.9 | 5.2 | 0.00 | 0.00 | 0.00 | 34 | 1019.0 |
| 20260503211404 | 81 | 32 | 0.9 | 5.2 | 0.00 | 0.00 | 0.00 | 33 | 1019.1 |
| 20260503211304 | 81 | 30 | 0.0 | 5.2 | 0.00 | 0.00 | 0.00 | 33 | 1019.1 |
| 20260503211204 | 81 | 28 | 0.0 | 5.2 | 0.00 | 0.00 | 0.00 | 33 | 1019.1 |
| 20260503211104 | 81 | 29 | 0.0 | 5.2 | 0.00 | 0.00 | 0.00 | 36 | 1019.2 |
| 20260503211004 | 81 | 35 | 0.0 | 4.3 | 0.00 | 0.00 | 0.00 | 35 | 1019.1 |
| 20260503210904 | 81 | 358 | 0.0 | 4.3 | 0.00 | 0.00 | 0.00 | 35 | 1019.1 |
| 20260503210804 | 81 | 334 | 0.0 | 4.3 | 0.00 | 0.00 | 0.00 | 36 | 1019.1 |
| 20260503210704 | 81 | 331 | 0.0 | 4.3 | 0.00 | 0.00 | 0.00 | 36 | 1019.2 |
| 20260503210604 | 81 | 342 | 0.9 | 7.0 | 0.00 | 0.00 | 0.00 | 37 | 1019.1 |
| 20260503210525 | 81 | 328 | 0.9 | 12.2 | 0.00 | 0.00 | 0.00 | 37 | 1019.2 |
| 20260503210404 | 80 | 321 | 0.9 | 12.2 | 0.00 | 0.00 | 0.00 | 36 | 1019.2 |
| 20260503210325 | 80 | 321 | 0.9 | 12.2 | 0.00 | 0.00 | 0.00 | 35 | 1019.2 |
| 20260503210204 | 80 | 321 | 0.9 | 12.2 | 0.00 | 0.00 | 0.00 | 35 | 1019.2 |
| 20260503210104 | 80 | 321 | 0.9 | 12.2 | 0.00 | 0.00 | 0.00 | 35 | 1019.2 |
| 20260503210005 | 80 | 322 | 0.9 | 12.2 | 0.00 | 0.00 | 0.00 | 34 | 1019.3 |
| 20260503205904 | 80 | 321 | 0.9 | 12.2 | 0.00 | 0.00 | 0.00 | 34 | 1019.3 |
| 20260503205804 | 80 | 320 | 0.9 | 12.2 | 0.00 | 0.00 | 0.00 | 34 | 1019.3 |
| 20260503205704 | 80 | 319 | 0.9 | 12.2 | 0.00 | 0.00 | 0.00 | 35 | 1019.2 |
| 20260503205604 | 80 | 310 | 0.9 | 12.2 | 0.00 | 0.00 | 0.00 | 35 | 1019.2 |
| 20260503205504 | 80 | 293 | 0.0 | 6.1 | 0.00 | 0.00 | 0.00 | 36 | 1019.2 |
| 20260503205404 | 80 | 304 | 0.0 | 6.1 | 0.00 | 0.00 | 0.00 | 37 | 1019.2 |
| 20260503205325 | 80 | 304 | 0.0 | 6.1 | 0.00 | 0.00 | 0.00 | 36 | 1019.2 |
| 20260503205204 | 80 | 304 | 0.0 | 6.1 | 0.00 | 0.00 | 0.00 | 35 | 1019.2 |
| 20260503205104 | 80 | 308 | 0.0 | 6.1 | 0.00 | 0.00 | 0.00 | 35 | 1019.2 |
| 20260503205004 | 80 | 304 | 0.0 | 6.1 | 0.00 | 0.00 | 0.00 | 36 | 1019.2 |
| 20260503204904 | 80 | 313 | 0.0 | 6.1 | 0.00 | 0.00 | 0.00 | 35 | 1019.2 |
| 20260503204804 | 80 | 322 | 0.0 | 6.1 | 0.00 | 0.00 | 0.00 | 34 | 1019.3 |
| 20260503204704 | 80 | 323 | 0.0 | 6.1 | 0.00 | 0.00 | 0.00 | 35 | 1019.4 |
| 20260503204604 | 80 | 331 | 0.9 | 6.1 | 0.00 | 0.00 | 0.00 | 35 | 1019.4 |
| 20260503204504 | 80 | 326 | 0.9 | 11.3 | 0.00 | 0.00 | 0.00 | 34 | 1019.4 |
| 20260503204404 | 80 | 332 | 1.7 | 11.3 | 0.00 | 0.00 | 0.00 | 34 | 1019.4 |
| 20260503204304 | 80 | 332 | 1.7 | 11.3 | 0.00 | 0.00 | 0.00 | 33 | 1019.4 |
| 20260503204204 | 80 | 332 | 1.7 | 11.3 | 0.00 | 0.00 | 0.00 | 33 | 1019.5 |
| 20260503204104 | 80 | 333 | 1.7 | 11.3 | 0.00 | 0.00 | 0.00 | 34 | 1019.5 |
| 20260503204004 | 80 | 334 | 1.7 | 11.3 | 0.00 | 0.00 | 0.00 | 34 | 1019.5 |
| 20260503203904 | 80 | 334 | 1.7 | 11.3 | 0.00 | 0.00 | 0.00 | 34 | 1019.6 |
| 20260503203804 | 80 | 334 | 0.9 | 11.3 | 0.00 | 0.00 | 0.00 | 34 | 1019.5 |
| 20260503203704 | 80 | 334 | 0.9 | 11.3 | 0.00 | 0.00 | 0.00 | 33 | 1019.5 |
| 20260503203604 | 80 | 339 | 0.9 | 11.3 | 0.00 | 0.00 | 0.00 | 34 | 1019.5 |
| 20260503203504 | 81 | 349 | 0.9 | 10.4 | 0.00 | 0.00 | 0.00 | 35 | 1019.6 |
| 20260503203425 | 81 | 20 | 0.9 | 8.7 | 0.00 | 0.00 | 0.00 | 36 | 1019.6 |
| 20260503203304 | 81 | 17 | 0.9 | 8.7 | 0.00 | 0.00 | 0.00 | 35 | 1019.6 |
| 20260503203204 | 81 | 17 | 0.9 | 8.7 | 0.00 | 0.00 | 0.00 | 36 | 1019.7 |
| 20260503203125 | 81 | 30 | 0.9 | 8.7 | 0.00 | 0.00 | 0.00 | 36 | 1019.7 |
| 20260503203025 | 81 | 39 | 0.9 | 8.7 | 0.00 | 0.00 | 0.00 | 36 | 1019.7 |
| 20260503202904 | 80 | 41 | 0.9 | 8.7 | 0.00 | 0.00 | 0.00 | 35 | 1019.8 |
| 20260503202804 | 81 | 37 | 0.9 | 8.7 | 0.00 | 0.00 | 0.00 | 35 | 1019.9 |
| 20260503202704 | 81 | 33 | 0.9 | 8.7 | 0.00 | 0.00 | 0.00 | 36 | 1019.9 |
| 20260503202604 | 81 | 28 | 0.9 | 8.7 | 0.00 | 0.00 | 0.00 | 36 | 1020.0 |
| 20260503202504 | 80 | 27 | 0.0 | 8.7 | 0.00 | 0.00 | 0.00 | 35 | 1019.9 |
| 20260503202404 | 80 | 20 | 0.0 | 6.1 | 0.00 | 0.00 | 0.00 | 34 | 1019.9 |
| 20260503202304 | 80 | 359 | 0.9 | 9.6 | 0.00 | 0.00 | 0.00 | 34 | 1019.9 |
| 20260503202225 | 80 | 352 | 0.9 | 10.4 | 0.00 | 0.00 | 0.00 | 35 | 1019.9 |
| 20260503202104 | 80 | 335 | 0.9 | 10.4 | 0.00 | 0.00 | 0.00 | 34 | 1019.9 |
| 20260503202025 | 80 | 329 | 0.9 | 10.4 | 0.00 | 0.00 | 0.00 | 34 | 1020.0 |
| 20260503201925 | 80 | 327 | 0.9 | 10.4 | 0.00 | 0.00 | 0.00 | 34 | 1020.0 |
| 20260503201804 | 80 | 330 | 0.9 | 10.4 | 0.00 | 0.00 | 0.00 | 35 | 1019.9 |
| 20260503201704 | 80 | 330 | 0.9 | 10.4 | 0.00 | 0.00 | 0.00 | 35 | 1020.0 |
| 20260503201604 | 80 | 330 | 0.9 | 10.4 | 0.00 | 0.00 | 0.00 | 35 | 1019.9 |
| 20260503201504 | 80 | 330 | 0.9 | 10.4 | 0.00 | 0.00 | 0.00 | 34 | 1019.9 |
| 20260503201404 | 80 | 330 | 0.9 | 10.4 | 0.00 | 0.00 | 0.00 | 35 | 1020.0 |
| 20260503201304 | 80 | 329 | 0.9 | 10.4 | 0.00 | 0.00 | 0.00 | 35 | 1020.0 |
| 20260503201204 | 80 | 323 | 0.9 | 7.8 | 0.00 | 0.00 | 0.00 | 35 | 1020.0 |
| 20260503201104 | 80 | 355 | 0.9 | 7.8 | 0.00 | 0.00 | 0.00 | 35 | 1020.0 |
| 20260503201004 | 80 | 14 | 0.9 | 7.8 | 0.00 | 0.00 | 0.00 | 36 | 1020.0 |
| 20260503200904 | 80 | 17 | 0.9 | 9.6 | 0.00 | 0.00 | 0.00 | 36 | 1020.1 |
| 20260503200825 | 80 | 21 | 0.9 | 9.6 | 0.00 | 0.00 | 0.00 | 35 | 1020.1 |
| 20260503200725 | 80 | 22 | 0.9 | 9.6 | 0.00 | 0.00 | 0.00 | 36 | 1020.1 |
| 20260503200604 | 80 | 24 | 0.9 | 9.6 | 0.00 | 0.00 | 0.00 | 36 | 1020.2 |
| 20260503200504 | 80 | 29 | 1.7 | 9.6 | 0.00 | 0.00 | 0.00 | 38 | 1020.1 |
| 20260503200404 | 80 | 35 | 1.7 | 9.6 | 0.00 | 0.00 | 0.00 | 40 | 1020.1 |
| 20260503200304 | 80 | 35 | 1.7 | 9.6 | 0.00 | 0.00 | 0.00 | 41 | 1020.1 |
| 20260503200225 | 80 | 35 | 1.7 | 9.6 | 0.00 | 0.00 | 0.00 | 41 | 1020.1 |
| 20260503200104 | 80 | 6 | 1.7 | 9.6 | 0.00 | 0.00 | 0.00 | 39 | 1020.2 |
| 20260503200004 | 80 | 359 | 1.7 | 9.6 | 0.00 | 0.00 | 0.00 | 39 | 1020.2 |
| 20260503195904 | 80 | 12 | 1.7 | 10.4 | 0.00 | 0.00 | 0.00 | 39 | 1020.2 |
| 20260503195805 | 80 | 14 | 1.7 | 11.3 | 0.00 | 0.00 | 0.00 | 40 | 1020.3 |
| 20260503195704 | 80 | 13 | 1.7 | 11.3 | 0.00 | 0.00 | 0.00 | 40 | 1020.3 |
| 20260503195604 | 80 | 13 | 1.7 | 11.3 | 0.00 | 0.00 | 0.00 | 40 | 1020.3 |
| 20260503195504 | 80 | 17 | 1.7 | 11.3 | 0.00 | 0.00 | 0.00 | 41 | 1020.4 |
| 20260503195404 | 80 | 15 | 1.7 | 11.3 | 0.00 | 0.00 | 0.00 | 42 | 1020.4 |
| 20260503195304 | 80 | 15 | 1.7 | 11.3 | 0.00 | 0.00 | 0.00 | 40 | 1020.3 |
| 20260503195204 | 79 | 16 | 1.7 | 11.3 | 0.00 | 0.00 | 0.00 | 40 | 1020.3 |
| 20260503195104 | 79 | 39 | 0.9 | 11.3 | 0.00 | 0.00 | 0.00 | 41 | 1020.2 |
| 20260503195003 | 79 | 35 | 0.9 | 11.3 | 0.00 | 0.00 | 0.00 | 40 | 1020.2 |
| 20260503194904 | 79 | 36 | 0.9 | 11.3 | 0.00 | 0.00 | 0.00 | 41 | 1020.2 |
| 20260503194825 | 79 | 46 | 0.9 | 7.0 | 0.00 | 0.00 | 0.00 | 40 | 1020.2 |
| 20260503194725 | 79 | 46 | 0.9 | 7.0 | 0.00 | 0.00 | 0.00 | 39 | 1020.2 |
| 20260503194604 | 79 | 45 | 0.9 | 7.0 | 0.00 | 0.00 | 0.00 | 39 | 1020.3 |
| 20260503194504 | 79 | 32 | 0.9 | 9.6 | 0.00 | 0.00 | 0.00 | 40 | 1020.3 |
| 20260503194404 | 79 | 35 | 0.9 | 9.6 | 0.00 | 0.00 | 0.00 | 40 | 1020.3 |
| 20260503194304 | 79 | 39 | 0.9 | 9.6 | 0.00 | 0.00 | 0.00 | 40 | 1020.4 |
| 20260503194204 | 79 | 35 | 1.7 | 9.6 | 0.00 | 0.00 | 0.00 | 41 | 1020.5 |
| 20260503194104 | 79 | 36 | 1.7 | 9.6 | 0.00 | 0.00 | 0.00 | 41 | 1020.5 |
| 20260503194004 | 79 | 39 | 1.7 | 9.6 | 0.00 | 0.00 | 0.00 | 42 | 1020.6 |
| 20260503193904 | 79 | 39 | 1.7 | 9.6 | 0.00 | 0.00 | 0.00 | 40 | 1020.5 |
| 20260503193804 | 79 | 34 | 1.7 | 9.6 | 0.00 | 0.00 | 0.00 | 39 | 1020.4 |
| 20260503193725 | 80 | 34 | 1.7 | 9.6 | 0.00 | 0.00 | 0.00 | 40 | 1020.4 |
| 20260503193604 | 80 | 30 | 2.6 | 9.6 | 0.00 | 0.00 | 0.00 | 39 | 1020.5 |
| 20260503193504 | 80 | 29 | 2.6 | 9.6 | 0.00 | 0.00 | 0.00 | 41 | 1020.6 |
| 20260503193404 | 80 | 28 | 1.7 | 9.6 | 0.00 | 0.00 | 0.00 | 40 | 1020.6 |
| 20260503193304 | 80 | 25 | 1.7 | 9.6 | 0.00 | 0.00 | 0.00 | 40 | 1020.5 |
| 20260503193225 | 80 | 27 | 1.7 | 9.6 | 0.00 | 0.00 | 0.00 | 40 | 1020.5 |
| 20260503193104 | 80 | 18 | 1.7 | 7.8 | 0.00 | 0.00 | 0.00 | 39 | 1020.6 |
| 20260503193004 | 80 | 16 | 1.7 | 7.8 | 0.00 | 0.00 | 0.00 | 39 | 1020.6 |
| 20260503192925 | 80 | 11 | 0.9 | 7.8 | 0.00 | 0.00 | 0.00 | 38 | 1020.6 |
| 20260503192804 | 80 | 8 | 0.9 | 7.8 | 0.00 | 0.00 | 0.00 | 38 | 1020.6 |
| 20260503192725 | 80 | 352 | 1.7 | 7.8 | 0.00 | 0.00 | 0.00 | 38 | 1020.7 |
| 20260503192604 | 80 | 344 | 1.7 | 7.0 | 0.00 | 0.00 | 0.00 | 39 | 1020.7 |
| 20260503192504 | 80 | 336 | 1.7 | 8.7 | 0.00 | 0.00 | 0.00 | 38 | 1020.7 |
| 20260503192404 | 80 | 345 | 1.7 | 8.7 | 0.00 | 0.00 | 0.00 | 39 | 1020.7 |
| 20260503192305 | 80 | 352 | 1.7 | 8.7 | 0.00 | 0.00 | 0.00 | 40 | 1020.7 |
| 20260503192204 | 80 | 354 | 1.7 | 8.7 | 0.00 | 0.00 | 0.00 | 39 | 1020.7 |
| 20260503192104 | 80 | 354 | 1.7 | 8.7 | 0.00 | 0.00 | 0.00 | 38 | 1020.7 |
| 20260503192004 | 80 | 355 | 1.7 | 8.7 | 0.00 | 0.00 | 0.00 | 41 | 1020.8 |
| 20260503191904 | 80 | 356 | 1.7 | 8.7 | 0.00 | 0.00 | 0.00 | 40 | 1020.7 |
| 20260503191804 | 80 | 358 | 1.7 | 8.7 | 0.00 | 0.00 | 0.00 | 39 | 1020.8 |
| 20260503191704 | 80 | 33 | 1.7 | 8.7 | 0.00 | 0.00 | 0.00 | 40 | 1020.9 |
| 20260503191603 | 80 | 36 | 0.9 | 8.7 | 0.00 | 0.00 | 0.00 | 40 | 1020.8 |
| 20260503191525 | 80 | 45 | 0.9 | 8.7 | 0.00 | 0.00 | 0.00 | 40 | 1020.9 |
| 20260503191404 | 80 | 48 | 0.9 | 8.7 | 0.00 | 0.00 | 0.00 | 40 | 1020.9 |
| 20260503191304 | 80 | 52 | 0.9 | 5.2 | 0.00 | 0.00 | 0.00 | 41 | 1020.9 |
| 20260503191204 | 80 | 57 | 0.9 | 5.2 | 0.00 | 0.00 | 0.00 | 40 | 1020.9 |
| 20260503191125 | 80 | 55 | 0.9 | 5.2 | 0.00 | 0.00 | 0.00 | 40 | 1020.9 |
| 20260503191004 | 80 | 54 | 0.9 | 5.2 | 0.00 | 0.00 | 0.00 | 39 | 1020.9 |
| 20260503190904 | 80 | 34 | 0.9 | 5.2 | 0.00 | 0.00 | 0.00 | 40 | 1021.0 |
| 20260503190804 | 80 | 11 | 0.9 | 9.6 | 0.00 | 0.00 | 0.00 | 41 | 1021.0 |
| 20260503190704 | 80 | 349 | 1.7 | 10.4 | 0.00 | 0.00 | 0.00 | 40 | 1021.0 |
| 20260503190604 | 80 | 2 | 1.7 | 11.3 | 0.00 | 0.00 | 0.00 | 39 | 1021.0 |
| 20260503190504 | 80 | 3 | 1.7 | 12.2 | 0.00 | 0.00 | 0.00 | 39 | 1021.0 |
| 20260503190404 | 79 | 1 | 1.7 | 12.2 | 0.00 | 0.00 | 0.00 | 38 | 1021.1 |
| 20260503190304 | 79 | 1 | 1.7 | 12.2 | 0.00 | 0.00 | 0.00 | 39 | 1021.0 |
| 20260503190204 | 79 | 360 | 1.7 | 12.2 | 0.00 | 0.00 | 0.00 | 38 | 1021.0 |
| 20260503190125 | 79 | 360 | 1.7 | 12.2 | 0.00 | 0.00 | 0.00 | 37 | 1021.0 |
| 20260503190004 | 80 | 360 | 1.7 | 12.2 | 0.00 | 0.00 | 0.00 | 40 | 1021.0 |
| 20260503185904 | 80 | 3 | 1.7 | 12.2 | 0.00 | 0.00 | 0.00 | 38 | 1021.0 |
| 20260503185825 | 80 | 8 | 1.7 | 12.2 | 0.00 | 0.00 | 0.00 | 39 | 1021.1 |
| 20260503185725 | 80 | 8 | 0.9 | 12.2 | 0.00 | 0.00 | 0.00 | 39 | 1021.1 |
| 20260503185604 | 79 | 2 | 0.0 | 12.2 | 0.00 | 0.00 | 0.00 | 40 | 1021.1 |
| 20260503185504 | 79 | 314 | 0.0 | 4.3 | 0.00 | 0.00 | 0.00 | 38 | 1021.2 |
| 20260503185404 | 79 | 11 | 0.0 | 3.5 | 0.00 | 0.00 | 0.00 | 39 | 1021.2 |
| 20260503185305 | 79 | 17 | 0.0 | 3.5 | 0.00 | 0.00 | 0.00 | 39 | 1021.2 |
| 20260503185204 | 79 | 20 | 0.0 | 4.3 | 0.00 | 0.00 | 0.00 | 39 | 1021.2 |
| 20260503185104 | 79 | 19 | 0.0 | 4.3 | 0.00 | 0.00 | 0.00 | 39 | 1021.2 |
| 20260503185004 | 79 | 22 | 0.0 | 4.3 | 0.00 | 0.00 | 0.00 | 39 | 1021.2 |
| 20260503184904 | 79 | 22 | 0.0 | 4.3 | 0.00 | 0.00 | 0.00 | 38 | 1021.2 |
| 20260503184804 | 79 | 24 | 0.0 | 4.3 | 0.00 | 0.00 | 0.00 | 38 | 1021.3 |
| 20260503184704 | 79 | 24 | 0.0 | 4.3 | 0.00 | 0.00 | 0.00 | 39 | 1021.3 |
| 20260503184604 | 80 | 24 | 0.0 | 4.3 | 0.00 | 0.00 | 0.00 | 38 | 1021.4 |
| 20260503184504 | 80 | 26 | 0.0 | 4.3 | 0.00 | 0.00 | 0.00 | 37 | 1021.4 |
| 20260503184425 | 80 | 12 | 0.0 | 4.3 | 0.00 | 0.00 | 0.00 | 37 | 1021.4 |
| 20260503184304 | 80 | 12 | 0.0 | 4.3 | 0.00 | 0.00 | 0.00 | 39 | 1021.4 |
| 20260503184204 | 80 | 13 | 0.0 | 4.3 | 0.00 | 0.00 | 0.00 | 40 | 1021.4 |
| 20260503184104 | 80 | 67 | 0.0 | 0.9 | 0.00 | 0.00 | 0.00 | 39 | 1021.3 |
| 20260503184004 | 80 | 0 | 0.0 | 0.9 | 0.00 | 0.00 | 0.00 | 39 | 1021.4 |
| 20260503183904 | 79 | 0 | 0.0 | 0.9 | 0.00 | 0.00 | 0.00 | 38 | 1021.4 |
| 20260503183804 | 79 | 0 | 0.0 | 0.9 | 0.00 | 0.00 | 0.00 | 39 | 1021.4 |
| 20260503183704 | 79 | 15 | 0.0 | 3.5 | 0.00 | 0.00 | 0.00 | 40 | 1021.5 |
| 20260503183604 | 79 | 1 | 0.0 | 6.1 | 0.00 | 0.00 | 0.00 | 39 | 1021.5 |
| 20260503183525 | 79 | 359 | 0.0 | 6.1 | 0.00 | 0.00 | 0.00 | 39 | 1021.5 |
| 20260503183425 | 79 | 359 | 0.0 | 6.1 | 0.00 | 0.00 | 0.00 | 39 | 1021.5 |
| 20260503183304 | 79 | 359 | 0.0 | 6.1 | 0.00 | 0.00 | 0.00 | 37 | 1021.5 |
| 20260503183225 | 79 | 359 | 0.0 | 6.1 | 0.00 | 0.00 | 0.00 | 38 | 1021.6 |
| 20260503183104 | 79 | 2 | 0.0 | 6.1 | 0.00 | 0.00 | 0.00 | 37 | 1021.6 |
| 20260503183004 | 79 | 1 | 0.0 | 6.1 | 0.00 | 0.00 | 0.00 | 36 | 1021.6 |
| 20260503182904 | 79 | 359 | 0.0 | 6.1 | 0.00 | 0.00 | 0.00 | 37 | 1021.7 |
| 20260503182804 | 79 | 351 | 0.9 | 6.1 | 0.00 | 0.00 | 0.00 | 37 | 1021.7 |
| 20260503182704 | 79 | 8 | 0.9 | 9.6 | 0.00 | 0.00 | 0.00 | 40 | 1021.7 |
| 20260503182604 | 79 | 20 | 0.9 | 9.6 | 0.00 | 0.00 | 0.00 | 40 | 1021.7 |
| 20260503182525 | 79 | 11 | 0.9 | 9.6 | 0.00 | 0.00 | 0.00 | 41 | 1021.7 |
| 20260503182404 | 78 | 11 | 0.9 | 9.6 | 0.00 | 0.00 | 0.00 | 39 | 1021.7 |
| 20260503182305 | 78 | 6 | 0.9 | 9.6 | 0.00 | 0.00 | 0.00 | 40 | 1021.8 |
| 20260503182204 | 78 | 6 | 0.9 | 9.6 | 0.00 | 0.00 | 0.00 | 39 | 1021.8 |
| 20260503182104 | 78 | 356 | 0.9 | 9.6 | 0.00 | 0.00 | 0.00 | 39 | 1021.7 |
| 20260503182005 | 78 | 349 | 0.9 | 9.6 | 0.00 | 0.00 | 0.00 | 39 | 1021.8 |
| 20260503181904 | 78 | 353 | 0.9 | 9.6 | 0.00 | 0.00 | 0.00 | 40 | 1021.8 |
| 20260503181804 | 78 | 356 | 0.9 | 9.6 | 0.00 | 0.00 | 0.00 | 43 | 1021.8 |
| 20260503181704 | 78 | 354 | 0.9 | 9.6 | 0.00 | 0.00 | 0.00 | 42 | 1021.8 |
| 20260503181604 | 78 | 355 | 0.9 | 7.8 | 0.00 | 0.00 | 0.00 | 42 | 1021.8 |
| 20260503181505 | 78 | 10 | 0.9 | 7.8 | 0.00 | 0.00 | 0.00 | 41 | 1021.8 |
| 20260503181404 | 78 | 16 | 0.9 | 7.8 | 0.00 | 0.00 | 0.00 | 42 | 1021.8 |
| 20260503181304 | 78 | 27 | 0.9 | 7.8 | 0.00 | 0.00 | 0.00 | 41 | 1021.9 |
| 20260503181204 | 78 | 35 | 1.7 | 8.7 | 0.00 | 0.00 | 0.00 | 42 | 1021.9 |
| 20260503181104 | 78 | 36 | 1.7 | 8.7 | 0.00 | 0.00 | 0.00 | 42 | 1022.0 |
| 20260503181004 | 78 | 42 | 1.7 | 8.7 | 0.00 | 0.00 | 0.00 | 42 | 1022.0 |
| 20260503180925 | 78 | 42 | 1.7 | 8.7 | 0.00 | 0.00 | 0.00 | 42 | 1022.1 |
| 20260503180804 | 78 | 51 | 1.7 | 8.7 | 0.00 | 0.00 | 0.00 | 42 | 1022.1 |
| 20260503180725 | 78 | 52 | 0.9 | 8.7 | 0.00 | 0.00 | 0.00 | 42 | 1022.1 |
| 20260503180604 | 78 | 47 | 0.9 | 8.7 | 0.00 | 0.00 | 0.00 | 42 | 1022.2 |
| 20260503180525 | 78 | 45 | 0.9 | 8.7 | 0.00 | 0.00 | 0.00 | 43 | 1022.2 |
| 20260503180425 | 78 | 44 | 0.9 | 8.7 | 0.00 | 0.00 | 0.00 | 44 | 1022.2 |
| 20260503180304 | 78 | 41 | 0.9 | 8.7 | 0.00 | 0.00 | 0.00 | 44 | 1022.2 |
| 20260503180204 | 78 | 26 | 0.0 | 8.7 | 0.00 | 0.00 | 0.00 | 43 | 1022.2 |
| 20260503180104 | 78 | 42 | 0.9 | 6.1 | 0.00 | 0.00 | 0.00 | 44 | 1022.2 |
| 20260503180004 | 78 | 49 | 0.9 | 7.8 | 0.00 | 0.00 | 0.00 | 43 | 1022.2 |
| 20260503175925 | 78 | 49 | 0.9 | 7.8 | 0.00 | 0.00 | 0.00 | 43 | 1022.2 |
| 20260503175804 | 78 | 49 | 0.9 | 7.8 | 0.00 | 0.00 | 0.00 | 41 | 1022.2 |
| 20260503175704 | 78 | 35 | 0.9 | 7.8 | 0.00 | 0.00 | 0.00 | 40 | 1022.2 |
| 20260503175604 | 78 | 31 | 0.9 | 7.8 | 0.00 | 0.00 | 0.00 | 40 | 1022.3 |
| 20260503175504 | 78 | 30 | 0.9 | 7.8 | 0.00 | 0.00 | 0.00 | 41 | 1022.3 |
| 20260503175404 | 78 | 31 | 0.9 | 7.8 | 0.00 | 0.00 | 0.00 | 43 | 1022.3 |
| 20260503175305 | 78 | 32 | 0.9 | 7.8 | 0.00 | 0.00 | 0.00 | 42 | 1022.3 |
| 20260503175204 | 78 | 32 | 0.9 | 7.8 | 0.00 | 0.00 | 0.00 | 41 | 1022.3 |
| 20260503175104 | 78 | 26 | 0.9 | 7.8 | 0.00 | 0.00 | 0.00 | 42 | 1022.3 |
| 20260503175004 | 78 | 353 | 0.9 | 7.8 | 0.00 | 0.00 | 0.00 | 41 | 1022.4 |
| 20260503174904 | 78 | 346 | 0.9 | 7.8 | 0.00 | 0.00 | 0.00 | 41 | 1022.4 |
| 20260503174804 | 78 | 344 | 0.9 | 7.8 | 0.00 | 0.00 | 0.00 | 41 | 1022.5 |
| 20260503174704 | 78 | 349 | 0.9 | 7.8 | 0.00 | 0.00 | 0.00 | 40 | 1022.4 |
| 20260503174625 | 78 | 355 | 0.9 | 7.8 | 0.00 | 0.00 | 0.00 | 40 | 1022.4 |
| 20260503174504 | 78 | 5 | 0.9 | 7.8 | 0.00 | 0.00 | 0.00 | 42 | 1022.5 |
| 20260503174404 | 78 | 6 | 0.9 | 7.8 | 0.00 | 0.00 | 0.00 | 40 | 1022.4 |
| 20260503174304 | 78 | 10 | 1.7 | 10.4 | 0.00 | 0.00 | 0.00 | 42 | 1022.4 |
| 20260503174204 | 78 | 10 | 0.9 | 10.4 | 0.00 | 0.00 | 0.00 | 40 | 1022.4 |
| 20260503174104 | 78 | 6 | 0.9 | 10.4 | 0.00 | 0.00 | 0.00 | 40 | 1022.5 |
| 20260503174004 | 78 | 21 | 0.9 | 10.4 | 0.00 | 0.00 | 0.00 | 40 | 1022.5 |
| 20260503173904 | 78 | 40 | 0.9 | 10.4 | 0.00 | 0.00 | 0.00 | 42 | 1022.5 |
| 20260503173804 | 78 | 40 | 0.9 | 10.4 | 0.00 | 0.00 | 0.00 | 41 | 1022.5 |
| 20260503173704 | 78 | 41 | 0.9 | 10.4 | 0.00 | 0.00 | 0.00 | 41 | 1022.5 |
| 20260503173625 | 78 | 40 | 1.7 | 10.4 | 0.00 | 0.00 | 0.00 | 41 | 1022.6 |
| 20260503173525 | 78 | 36 | 1.7 | 10.4 | 0.00 | 0.00 | 0.00 | 41 | 1022.6 |
| 20260503173425 | 78 | 35 | 1.7 | 10.4 | 0.00 | 0.00 | 0.00 | 39 | 1022.6 |
| 20260503173325 | 78 | 37 | 0.9 | 10.4 | 0.00 | 0.00 | 0.00 | 41 | 1022.6 |
| 20260503173204 | 78 | 36 | 1.7 | 9.6 | 0.00 | 0.00 | 0.00 | 40 | 1022.6 |
| 20260503173104 | 78 | 37 | 1.7 | 9.6 | 0.00 | 0.00 | 0.00 | 42 | 1022.6 |
| 20260503173004 | 77 | 39 | 1.7 | 9.6 | 0.00 | 0.00 | 0.00 | 41 | 1022.6 |
| 20260503172904 | 78 | 31 | 0.9 | 8.7 | 0.00 | 0.00 | 0.00 | 42 | 1022.6 |
| 20260503172825 | 78 | 31 | 0.9 | 8.7 | 0.00 | 0.00 | 0.00 | 41 | 1022.6 |
| 20260503172725 | 78 | 31 | 0.9 | 8.7 | 0.00 | 0.00 | 0.00 | 41 | 1022.6 |
| 20260503172604 | 77 | 32 | 0.0 | 8.7 | 0.00 | 0.00 | 0.00 | 41 | 1022.6 |
| 20260503172525 | 77 | 26 | 0.0 | 8.7 | 0.00 | 0.00 | 0.00 | 42 | 1022.7 |
| 20260503172404 | 77 | 34 | 0.9 | 8.7 | 0.00 | 0.00 | 0.00 | 43 | 1022.7 |
| 20260503172305 | 77 | 35 | 0.9 | 8.7 | 0.00 | 0.00 | 0.00 | 43 | 1022.7 |
| 20260503172204 | 77 | 36 | 0.9 | 6.1 | 0.00 | 0.00 | 0.00 | 44 | 1022.7 |
| 20260503172104 | 77 | 38 | 0.9 | 6.1 | 0.00 | 0.00 | 0.00 | 43 | 1022.7 |
| 20260503172025 | 77 | 37 | 0.9 | 6.1 | 0.00 | 0.00 | 0.00 | 43 | 1022.7 |
| 20260503171904 | 77 | 36 | 0.9 | 6.1 | 0.00 | 0.00 | 0.00 | 43 | 1022.8 |
| 20260503171804 | 77 | 35 | 0.9 | 6.1 | 0.00 | 0.00 | 0.00 | 45 | 1022.8 |
| 20260503171704 | 76 | 35 | 0.9 | 6.1 | 0.00 | 0.00 | 0.00 | 44 | 1022.8 |
| 20260503171604 | 76 | 36 | 0.9 | 6.1 | 0.00 | 0.00 | 0.00 | 45 | 1022.8 |
| 20260503171504 | 76 | 36 | 0.9 | 6.1 | 0.00 | 0.00 | 0.00 | 44 | 1022.8 |
| 20260503171404 | 76 | 33 | 0.9 | 5.2 | 0.00 | 0.00 | 0.00 | 45 | 1022.8 |
| 20260503171325 | 76 | 32 | 0.0 | 5.2 | 0.00 | 0.00 | 0.00 | 45 | 1022.8 |
| 20260503171204 | 77 | 31 | 0.0 | 5.2 | 0.00 | 0.00 | 0.00 | 46 | 1022.8 |
| 20260503171104 | 77 | 30 | 0.0 | 4.3 | 0.00 | 0.00 | 0.00 | 45 | 1022.8 |
| 20260503171004 | 77 | 36 | 0.0 | 5.2 | 0.00 | 0.00 | 0.00 | 44 | 1022.8 |
| 20260503170904 | 77 | 355 | 0.0 | 5.2 | 0.00 | 0.00 | 0.00 | 45 | 1022.8 |
| 20260503170804 | 77 | 348 | 0.0 | 5.2 | 0.00 | 0.00 | 0.00 | 46 | 1022.8 |
| 20260503170704 | 77 | 348 | 0.0 | 5.2 | 0.00 | 0.00 | 0.00 | 45 | 1022.8 |
| 20260503170604 | 77 | 340 | 0.0 | 5.2 | 0.00 | 0.00 | 0.00 | 46 | 1022.8 |
| 20260503170504 | 77 | 340 | 0.0 | 5.2 | 0.00 | 0.00 | 0.00 | 47 | 1022.9 |
| 20260503170404 | 77 | 340 | 0.0 | 5.2 | 0.00 | 0.00 | 0.00 | 46 | 1022.9 |
| 20260503170304 | 77 | 341 | 0.0 | 5.2 | 0.00 | 0.00 | 0.00 | 47 | 1022.9 |
| 20260503170204 | 77 | 341 | 0.0 | 5.2 | 0.00 | 0.00 | 0.00 | 47 | 1022.9 |
| 20260503170104 | 77 | 340 | 0.0 | 5.2 | 0.00 | 0.00 | 0.00 | 46 | 1022.9 |
| 20260503160204 | 74 | 51 | 0.0 | 6.1 | 0.00 | 0.00 | 0.00 | 47 | 1023.5 |
| 20260503160104 | 74 | 53 | 0.0 | 6.1 | 0.00 | 0.00 | 0.00 | 49 | 1023.5 |
| 20260503151004 | 72 | 51 | 2.6 | 10.4 | 0.00 | 0.00 | 0.00 | 50 | 1023.3 |
| 20260503150904 | 72 | 51 | 1.7 | 10.4 | 0.00 | 0.00 | 0.00 | 51 | 1023.2 |
| 20260503150825 | 72 | 53 | 0.9 | 9.6 | 0.00 | 0.00 | 0.00 | 51 | 1023.2 |
| 20260503150704 | 72 | 56 | 0.9 | 7.8 | 0.00 | 0.00 | 0.00 | 51 | 1023.2 |
| 20260503150604 | 72 | 55 | 0.0 | 7.0 | 0.00 | 0.00 | 0.00 | 52 | 1023.2 |
| 20260503150504 | 72 | 46 | 0.0 | 1.7 | 0.00 | 0.00 | 0.00 | 53 | 1023.2 |
| 20260503150404 | 71 | 46 | 0.0 | 1.7 | 0.00 | 0.00 | 0.00 | 53 | 1023.3 |
| 20260503150303 | 71 | 47 | 0.0 | 1.7 | 0.00 | 0.00 | 0.00 | 52 | 1023.2 |
| 20260503150204 | 71 | 54 | 0.0 | 2.6 | 0.00 | 0.00 | 0.00 | 52 | 1023.2 |
| 20260503150104 | 71 | 63 | 0.9 | 4.3 | 0.00 | 0.00 | 0.00 | 51 | 1023.2 |
| 20260503140304 | 68 | 71 | 0.0 | 2.6 | 0.00 | 0.00 | 0.00 | 55 | 1022.9 |
| 20260503140204 | 68 | 71 | 0.9 | 2.6 | 0.00 | 0.00 | 0.00 | 54 | 1022.9 |
| 20260503140104 | 68 | 70 | 0.9 | 5.2 | 0.00 | 0.00 | 0.00 | 54 | 1022.9 |
| 20260503131404 | 64 | 98 | 0.0 | 2.6 | 0.00 | 0.00 | 0.00 | 55 | 1022.8 |
| 20260503131304 | 64 | 98 | 0.0 | 2.6 | 0.00 | 0.00 | 0.00 | 55 | 1022.8 |
| 20260503131204 | 64 | 98 | 0.0 | 2.6 | 0.00 | 0.00 | 0.00 | 55 | 1022.8 |
| 20260503131104 | 64 | 98 | 0.0 | 2.6 | 0.00 | 0.00 | 0.00 | 55 | 1022.8 |
| 20260503131004 | 64 | 98 | 0.0 | 2.6 | 0.00 | 0.00 | 0.00 | 54 | 1022.8 |
| 20260503130904 | 65 | 98 | 0.0 | 2.6 | 0.00 | 0.00 | 0.00 | 55 | 1022.8 |
| 20260503130804 | 65 | 98 | 0.0 | 2.6 | 0.00 | 0.00 | 0.00 | 54 | 1022.8 |
| 20260503130704 | 65 | 98 | 0.0 | 2.6 | 0.00 | 0.00 | 0.00 | 54 | 1022.7 |
| 20260503130604 | 65 | 98 | 0.0 | 2.6 | 0.00 | 0.00 | 0.00 | 54 | 1022.7 |
| 20260503130525 | 66 | 0 | 0.0 | 0.0 | 0.00 | 0.00 | 0.00 | 53 | 1022.7 |
| 20260503130404 | 66 | 0 | 0.0 | 0.0 | 0.00 | 0.00 | 0.00 | 53 | 1022.7 |
| 20260503130325 | 66 | 0 | 0.0 | 0.0 | 0.00 | 0.00 | 0.00 | 53 | 1022.7 |
| 20260503130204 | 66 | 0 | 0.0 | 0.0 | 0.00 | 0.00 | 0.00 | 53 | 1022.7 |
| 20260503130104 | 66 | 0 | 0.0 | 0.0 | 0.00 | 0.00 | 0.00 | 52 | 1022.7 |
| 20260503120204 | 57 | 0 | 0.0 | 0.0 | 0.00 | 0.00 | 0.00 | 44 | 1022.1 |
| 20260503120103 | 57 | 0 | 0.0 | 0.0 | 0.00 | 0.00 | 0.00 | 44 | 1022.1 |
| 20260503110825 | 57 | 0 | 0.0 | 0.0 | 0.00 | 0.00 | 0.00 | 42 | 1021.9 |
| 20260503110704 | 57 | 0 | 0.0 | 0.0 | 0.00 | 0.00 | 0.00 | 43 | 1021.8 |
| 20260503110604 | 57 | 0 | 0.0 | 0.0 | 0.00 | 0.00 | 0.00 | 43 | 1021.8 |
| 20260503110503 | 57 | 0 | 0.0 | 0.0 | 0.00 | 0.00 | 0.00 | 43 | 1021.8 |
| 20260503110404 | 57 | 0 | 0.0 | 0.0 | 0.00 | 0.00 | 0.00 | 43 | 1021.8 |
| 20260503110303 | 57 | 0 | 0.0 | 0.0 | 0.00 | 0.00 | 0.00 | 43 | 1021.8 |
| 20260503110204 | 57 | 0 | 0.0 | 0.0 | 0.00 | 0.00 | 0.00 | 44 | 1021.8 |
| 20260503110104 | 57 | 0 | 0.0 | 0.0 | 0.00 | 0.00 | 0.00 | 44 | 1021.8 |
| 20260503100204 | 58 | 96 | 0.0 | 0.9 | 0.00 | 0.00 | 0.00 | 46 | 1021.3 |
| 20260503100104 | 58 | 96 | 0.0 | 0.9 | 0.00 | 0.00 | 0.00 | 46 | 1021.4 |
| 20260503090504 | 59 | 0 | 0.0 | 0.0 | 0.00 | 0.00 | 0.00 | 51 | 1021.3 |
| 20260503090404 | 59 | 0 | 0.0 | 0.0 | 0.00 | 0.00 | 0.00 | 51 | 1021.3 |
| 20260503090325 | 59 | 0 | 0.0 | 0.0 | 0.00 | 0.00 | 0.00 | 51 | 1021.3 |
| 20260503090204 | 59 | 0 | 0.0 | 0.0 | 0.00 | 0.00 | 0.00 | 51 | 1021.3 |
| 20260503090104 | 59 | 0 | 0.0 | 0.0 | 0.00 | 0.00 | 0.00 | 51 | 1021.4 |
| 20260503081604 | 59 | 0 | 0.0 | 0.0 | 0.00 | 0.00 | 0.00 | 45 | 1021.4 |
| 20260503081503 | 59 | 0 | 0.0 | 0.0 | 0.00 | 0.00 | 0.00 | 45 | 1021.4 |
| 20260503081404 | 59 | 0 | 0.0 | 0.0 | 0.00 | 0.00 | 0.00 | 45 | 1021.4 |
| 20260503081304 | 59 | 0 | 0.0 | 0.0 | 0.00 | 0.00 | 0.00 | 45 | 1021.5 |
| 20260503081203 | 59 | 0 | 0.0 | 0.0 | 0.00 | 0.00 | 0.00 | 45 | 1021.5 |
| 20260503081125 | 59 | 0 | 0.0 | 0.0 | 0.00 | 0.00 | 0.00 | 45 | 1021.5 |
| 20260503081004 | 59 | 0 | 0.0 | 0.0 | 0.00 | 0.00 | 0.00 | 45 | 1021.4 |
| 20260503080904 | 59 | 0 | 0.0 | 0.0 | 0.00 | 0.00 | 0.00 | 44 | 1021.4 |
| 20260503080824 | 59 | 0 | 0.0 | 0.0 | 0.00 | 0.00 | 0.00 | 44 | 1021.4 |
| 20260503080725 | 59 | 0 | 0.0 | 0.0 | 0.00 | 0.00 | 0.00 | 44 | 1021.4 |
| 20260503080604 | 59 | 0 | 0.0 | 0.0 | 0.00 | 0.00 | 0.00 | 44 | 1021.4 |
| 20260503080504 | 59 | 0 | 0.0 | 0.0 | 0.00 | 0.00 | 0.00 | 44 | 1021.4 |
| 20260503080403 | 59 | 0 | 0.0 | 0.0 | 0.00 | 0.00 | 0.00 | 44 | 1021.5 |
| 20260503080324 | 59 | 0 | 0.0 | 0.0 | 0.00 | 0.00 | 0.00 | 44 | 1021.5 |
| 20260503080204 | 59 | 0 | 0.0 | 0.0 | 0.00 | 0.00 | 0.00 | 44 | 1021.5 |
| 20260503080104 | 59 | 0 | 0.0 | 0.0 | 0.00 | 0.00 | 0.00 | 44 | 1021.5 |
| 20260503072904 | 58 | 0 | 0.0 | 0.0 | 0.00 | 0.00 | 0.00 | 35 | 1021.7 |
| 20260503072803 | 58 | 0 | 0.0 | 0.0 | 0.00 | 0.00 | 0.00 | 36 | 1021.7 |
| 20260503072704 | 58 | 0 | 0.0 | 0.0 | 0.00 | 0.00 | 0.00 | 35 | 1021.7 |
| 20260503072603 | 58 | 0 | 0.0 | 0.0 | 0.00 | 0.00 | 0.00 | 35 | 1021.6 |
| 20260503072504 | 58 | 0 | 0.0 | 0.0 | 0.00 | 0.00 | 0.00 | 36 | 1021.6 |
| 20260503072425 | 58 | 0 | 0.0 | 0.0 | 0.00 | 0.00 | 0.00 | 36 | 1021.6 |
| 20260503072305 | 58 | 0 | 0.0 | 0.0 | 0.00 | 0.00 | 0.00 | 36 | 1021.7 |
| 20260503072204 | 58 | 0 | 0.0 | 0.0 | 0.00 | 0.00 | 0.00 | 36 | 1021.7 |
| 20260503072104 | 58 | 0 | 0.0 | 0.0 | 0.00 | 0.00 | 0.00 | 37 | 1021.6 |
| 20260503072004 | 58 | 0 | 0.0 | 0.0 | 0.00 | 0.00 | 0.00 | 38 | 1021.6 |
| 20260503071903 | 58 | 0 | 0.0 | 0.0 | 0.00 | 0.00 | 0.00 | 39 | 1021.6 |
| 20260503071803 | 59 | 0 | 0.0 | 0.0 | 0.00 | 0.00 | 0.00 | 40 | 1021.7 |
| 20260503071725 | 59 | 0 | 0.0 | 0.0 | 0.00 | 0.00 | 0.00 | 41 | 1021.6 |
| 20260503071625 | 59 | 0 | 0.0 | 0.0 | 0.00 | 0.00 | 0.00 | 42 | 1021.7 |
| 20260503071504 | 59 | 0 | 0.0 | 0.0 | 0.00 | 0.00 | 0.00 | 43 | 1021.7 |
| 20260503071403 | 59 | 0 | 0.0 | 0.0 | 0.00 | 0.00 | 0.00 | 43 | 1021.7 |
| 20260503071325 | 59 | 0 | 0.0 | 0.0 | 0.00 | 0.00 | 0.00 | 43 | 1021.7 |
| 20260503071204 | 59 | 0 | 0.0 | 0.0 | 0.00 | 0.00 | 0.00 | 43 | 1021.7 |
| 20260503071125 | 59 | 0 | 0.0 | 0.0 | 0.00 | 0.00 | 0.00 | 44 | 1021.8 |
| 20260503071004 | 59 | 0 | 0.0 | 0.0 | 0.00 | 0.00 | 0.00 | 44 | 1021.8 |
| 20260503070904 | 59 | 0 | 0.0 | 0.0 | 0.00 | 0.00 | 0.00 | 44 | 1021.8 |
| 20260503070803 | 59 | 0 | 0.0 | 0.0 | 0.00 | 0.00 | 0.00 | 44 | 1021.8 |
| 20260503070703 | 59 | 0 | 0.0 | 0.0 | 0.00 | 0.00 | 0.00 | 44 | 1021.8 |
| 20260503070625 | 59 | 0 | 0.0 | 0.0 | 0.00 | 0.00 | 0.00 | 45 | 1021.8 |
| 20260503070504 | 59 | 0 | 0.0 | 0.0 | 0.00 | 0.00 | 0.00 | 45 | 1021.7 |
| 20260503070403 | 59 | 0 | 0.0 | 0.0 | 0.00 | 0.00 | 0.00 | 45 | 1021.8 |
| 20260503070303 | 59 | 0 | 0.0 | 0.0 | 0.00 | 0.00 | 0.00 | 44 | 1021.8 |
| 20260503070203 | 59 | 0 | 0.0 | 0.0 | 0.00 | 0.00 | 0.00 | 44 | 1021.8 |
| 20260503070104 | 59 | 0 | 0.0 | 0.0 | 0.00 | 0.00 | 0.00 | 44 | 1021.9 |
| 20260503060304 | 60 | 0 | 0.0 | 0.0 | 0.00 | 0.00 | 0.00 | 43 | 1021.9 |
| 20260503060204 | 60 | 0 | 0.0 | 0.0 | 0.00 | 0.00 | 0.00 | 43 | 1021.9 |
| 20260503060103 | 60 | 0 | 0.0 | 0.0 | 0.00 | 0.00 | 0.00 | 43 | 1021.8 |
| 20260503055125 | 60 | 0 | 0.0 | 0.0 | 0.00 | 0.00 | 0.00 | 41 | 1021.8 |
| 20260503055025 | 60 | 0 | 0.0 | 0.0 | 0.00 | 0.00 | 0.00 | 41 | 1021.8 |
| 20260503054904 | 60 | 0 | 0.0 | 0.0 | 0.00 | 0.00 | 0.00 | 41 | 1021.8 |
| 20260503054803 | 60 | 0 | 0.0 | 0.0 | 0.00 | 0.00 | 0.00 | 41 | 1021.8 |
| 20260503054725 | 60 | 0 | 0.0 | 0.0 | 0.00 | 0.00 | 0.00 | 42 | 1021.8 |
| 20260503054603 | 60 | 0 | 0.0 | 0.0 | 0.00 | 0.00 | 0.00 | 43 | 1021.9 |
| 20260503054504 | 60 | 0 | 0.0 | 0.0 | 0.00 | 0.00 | 0.00 | 43 | 1021.9 |
| 20260503054404 | 60 | 0 | 0.0 | 0.0 | 0.00 | 0.00 | 0.00 | 43 | 1021.9 |
| 20260503054303 | 60 | 0 | 0.0 | 0.0 | 0.00 | 0.00 | 0.00 | 45 | 1022.0 |
| 20260503054203 | 61 | 0 | 0.0 | 0.0 | 0.00 | 0.00 | 0.00 | 45 | 1021.9 |
| 20260503054104 | 61 | 0 | 0.0 | 0.0 | 0.00 | 0.00 | 0.00 | 46 | 1021.9 |
| 20260503054004 | 61 | 0 | 0.0 | 0.0 | 0.00 | 0.00 | 0.00 | 47 | 1021.9 |
| 20260503053925 | 61 | 0 | 0.0 | 0.0 | 0.00 | 0.00 | 0.00 | 48 | 1021.9 |
| 20260503053803 | 61 | 0 | 0.0 | 0.0 | 0.00 | 0.00 | 0.00 | 48 | 1021.9 |
| 20260503053704 | 61 | 0 | 0.0 | 0.0 | 0.00 | 0.00 | 0.00 | 48 | 1021.8 |
| 20260503053624 | 61 | 0 | 0.0 | 0.0 | 0.00 | 0.00 | 0.00 | 48 | 1021.8 |
| 20260503053503 | 61 | 0 | 0.0 | 0.0 | 0.00 | 0.00 | 0.00 | 48 | 1021.9 |
| 20260503053404 | 61 | 0 | 0.0 | 0.0 | 0.00 | 0.00 | 0.00 | 48 | 1021.9 |
| 20260503053303 | 61 | 0 | 0.0 | 0.0 | 0.00 | 0.00 | 0.00 | 47 | 1021.9 |
| 20260503053204 | 61 | 0 | 0.0 | 0.0 | 0.00 | 0.00 | 0.00 | 47 | 1021.9 |
| 20260503053104 | 61 | 0 | 0.0 | 0.0 | 0.00 | 0.00 | 0.00 | 47 | 1021.9 |
| 20260503053004 | 61 | 0 | 0.0 | 0.0 | 0.00 | 0.00 | 0.00 | 47 | 1021.9 |
| 20260503052925 | 61 | 0 | 0.0 | 0.0 | 0.00 | 0.00 | 0.00 | 47 | 1022.0 |
| 20260503052804 | 61 | 0 | 0.0 | 0.0 | 0.00 | 0.00 | 0.00 | 48 | 1022.0 |
| 20260503052703 | 61 | 0 | 0.0 | 0.0 | 0.00 | 0.00 | 0.00 | 48 | 1022.0 |
| 20260503052603 | 61 | 0 | 0.0 | 0.0 | 0.00 | 0.00 | 0.00 | 48 | 1022.0 |
| 20260503052503 | 61 | 0 | 0.0 | 0.0 | 0.00 | 0.00 | 0.00 | 48 | 1022.0 |
| 20260503052403 | 61 | 0 | 0.0 | 0.0 | 0.00 | 0.00 | 0.00 | 48 | 1022.0 |
| 20260503052325 | 61 | 0 | 0.0 | 0.0 | 0.00 | 0.00 | 0.00 | 48 | 1022.0 |
| 20260503052203 | 61 | 0 | 0.0 | 0.0 | 0.00 | 0.00 | 0.00 | 48 | 1022.0 |
| 20260503052104 | 61 | 0 | 0.0 | 0.0 | 0.00 | 0.00 | 0.00 | 48 | 1022.0 |
| 20260503052003 | 61 | 0 | 0.0 | 0.0 | 0.00 | 0.00 | 0.00 | 49 | 1022.0 |
| 20260503051924 | 61 | 0 | 0.0 | 0.0 | 0.00 | 0.00 | 0.00 | 48 | 1022.0 |
| 20260503051803 | 61 | 0 | 0.0 | 0.0 | 0.00 | 0.00 | 0.00 | 48 | 1022.0 |
| 20260503051704 | 61 | 0 | 0.0 | 0.0 | 0.00 | 0.00 | 0.00 | 48 | 1022.0 |
| 20260503051604 | 61 | 0 | 0.0 | 0.0 | 0.00 | 0.00 | 0.00 | 47 | 1022.0 |
| 20260503051503 | 61 | 0 | 0.0 | 0.0 | 0.00 | 0.00 | 0.00 | 47 | 1021.9 |
| 20260503051404 | 61 | 0 | 0.0 | 0.0 | 0.00 | 0.00 | 0.00 | 47 | 1022.0 |
| 20260503051303 | 61 | 0 | 0.0 | 0.0 | 0.00 | 0.00 | 0.00 | 48 | 1022.0 |
| 20260503051204 | 61 | 0 | 0.0 | 0.0 | 0.00 | 0.00 | 0.00 | 48 | 1021.9 |
| 20260503051103 | 61 | 0 | 0.0 | 0.0 | 0.00 | 0.00 | 0.00 | 48 | 1022.0 |
| 20260503051003 | 61 | 0 | 0.0 | 0.0 | 0.00 | 0.00 | 0.00 | 48 | 1021.9 |
| 20260503050904 | 61 | 0 | 0.0 | 0.0 | 0.00 | 0.00 | 0.00 | 48 | 1021.9 |
| 20260503050804 | 61 | 0 | 0.0 | 0.0 | 0.00 | 0.00 | 0.00 | 48 | 1021.9 |
| 20260503050704 | 61 | 0 | 0.0 | 0.0 | 0.00 | 0.00 | 0.00 | 48 | 1022.0 |
| 20260503050604 | 61 | 0 | 0.0 | 0.0 | 0.00 | 0.00 | 0.00 | 48 | 1022.0 |
| 20260503050503 | 61 | 0 | 0.0 | 0.0 | 0.00 | 0.00 | 0.00 | 47 | 1022.0 |
| 20260503050425 | 61 | 0 | 0.0 | 0.0 | 0.00 | 0.00 | 0.00 | 47 | 1021.9 |
| 20260503050304 | 61 | 0 | 0.0 | 0.0 | 0.00 | 0.00 | 0.00 | 47 | 1021.9 |
| 20260503050224 | 61 | 0 | 0.0 | 0.0 | 0.00 | 0.00 | 0.00 | 47 | 1021.8 |
| 20260503050103 | 61 | 0 | 0.0 | 0.0 | 0.00 | 0.00 | 0.00 | 48 | 1021.8 |
| 20260503050004 | 61 | 0 | 0.0 | 0.0 | 0.00 | 0.00 | 0.00 | 48 | 1021.8 |
| 20260503045904 | 61 | 0 | 0.0 | 0.0 | 0.00 | 0.00 | 0.00 | 48 | 1021.8 |
| 20260503045804 | 61 | 0 | 0.0 | 0.0 | 0.00 | 0.00 | 0.00 | 48 | 1021.8 |
| 20260503045725 | 61 | 0 | 0.0 | 0.0 | 0.00 | 0.00 | 0.00 | 48 | 1021.8 |
| 20260503045624 | 61 | 0 | 0.0 | 0.0 | 0.00 | 0.00 | 0.00 | 47 | 1021.8 |
| 20260503045504 | 61 | 0 | 0.0 | 0.0 | 0.00 | 0.00 | 0.00 | 47 | 1021.8 |
| 20260503045425 | 61 | 0 | 0.0 | 0.0 | 0.00 | 0.00 | 0.00 | 47 | 1021.8 |
| 20260503045305 | 61 | 0 | 0.0 | 0.0 | 0.00 | 0.00 | 0.00 | 47 | 1021.8 |
| 20260503045203 | 61 | 0 | 0.0 | 0.0 | 0.00 | 0.00 | 0.00 | 47 | 1021.9 |
| 20260503045124 | 61 | 0 | 0.0 | 0.0 | 0.00 | 0.00 | 0.00 | 46 | 1021.9 |
| 20260503045003 | 61 | 0 | 0.0 | 0.0 | 0.00 | 0.00 | 0.00 | 46 | 1021.9 |
| 20260503044903 | 61 | 0 | 0.0 | 0.0 | 0.00 | 0.00 | 0.00 | 46 | 1021.9 |
| 20260503044804 | 62 | 0 | 0.0 | 0.0 | 0.00 | 0.00 | 0.00 | 47 | 1021.9 |
| 20260503044703 | 62 | 0 | 0.0 | 0.0 | 0.00 | 0.00 | 0.00 | 47 | 1021.9 |
| 20260503044604 | 62 | 0 | 0.0 | 0.0 | 0.00 | 0.00 | 0.00 | 47 | 1021.8 |
| 20260503044504 | 62 | 0 | 0.0 | 0.0 | 0.00 | 0.00 | 0.00 | 47 | 1021.9 |
| 20260503044404 | 62 | 0 | 0.0 | 0.0 | 0.00 | 0.00 | 0.00 | 47 | 1021.9 |
| 20260503044303 | 62 | 0 | 0.0 | 0.0 | 0.00 | 0.00 | 0.00 | 47 | 1021.9 |
| 20260503044204 | 62 | 0 | 0.0 | 0.0 | 0.00 | 0.00 | 0.00 | 47 | 1021.8 |
| 20260503044104 | 62 | 0 | 0.0 | 0.0 | 0.00 | 0.00 | 0.00 | 47 | 1021.9 |
| 20260503044003 | 62 | 0 | 0.0 | 0.0 | 0.00 | 0.00 | 0.00 | 47 | 1021.9 |
| 20260503043904 | 62 | 0 | 0.0 | 0.0 | 0.00 | 0.00 | 0.00 | 46 | 1021.8 |
| 20260503043824 | 62 | 0 | 0.0 | 0.0 | 0.00 | 0.00 | 0.00 | 45 | 1021.8 |
| 20260503043704 | 62 | 0 | 0.0 | 0.0 | 0.00 | 0.00 | 0.00 | 45 | 1021.8 |
| 20260503043603 | 61 | 0 | 0.0 | 0.0 | 0.00 | 0.00 | 0.00 | 44 | 1021.8 |
| 20260503043503 | 61 | 0 | 0.0 | 0.0 | 0.00 | 0.00 | 0.00 | 44 | 1021.8 |
| 20260503043403 | 61 | 0 | 0.0 | 0.0 | 0.00 | 0.00 | 0.00 | 44 | 1021.8 |
| 20260503043303 | 61 | 0 | 0.0 | 0.0 | 0.00 | 0.00 | 0.00 | 43 | 1021.9 |
| 20260503043203 | 61 | 0 | 0.0 | 0.0 | 0.00 | 0.00 | 0.00 | 43 | 1021.8 |
| 20260503043103 | 61 | 0 | 0.0 | 0.0 | 0.00 | 0.00 | 0.00 | 43 | 1021.8 |
| 20260503043004 | 61 | 0 | 0.0 | 0.0 | 0.00 | 0.00 | 0.00 | 42 | 1021.8 |
| 20260503042903 | 61 | 0 | 0.0 | 0.0 | 0.00 | 0.00 | 0.00 | 41 | 1021.8 |
| 20260503042804 | 61 | 0 | 0.0 | 0.0 | 0.00 | 0.00 | 0.00 | 41 | 1021.8 |
| 20260503042704 | 61 | 0 | 0.0 | 0.0 | 0.00 | 0.00 | 0.00 | 39 | 1021.8 |
| 20260503042603 | 61 | 0 | 0.0 | 0.0 | 0.00 | 0.00 | 0.00 | 39 | 1021.7 |
| 20260503042504 | 61 | 0 | 0.0 | 0.0 | 0.00 | 0.00 | 0.00 | 39 | 1021.7 |
| 20260503042403 | 61 | 0 | 0.0 | 0.0 | 0.00 | 0.00 | 0.00 | 39 | 1021.7 |
| 20260503042305 | 60 | 0 | 0.0 | 0.0 | 0.00 | 0.00 | 0.00 | 38 | 1021.8 |
| 20260503042204 | 60 | 0 | 0.0 | 0.0 | 0.00 | 0.00 | 0.00 | 39 | 1021.8 |
| 20260503042103 | 60 | 0 | 0.0 | 0.0 | 0.00 | 0.00 | 0.00 | 39 | 1021.7 |
| 20260503042003 | 60 | 0 | 0.0 | 0.0 | 0.00 | 0.00 | 0.00 | 39 | 1021.7 |
| 20260503041903 | 60 | 0 | 0.0 | 0.0 | 0.00 | 0.00 | 0.00 | 44 | 1021.7 |
| 20260503041803 | 60 | 0 | 0.0 | 0.0 | 0.00 | 0.00 | 0.00 | 47 | 1021.7 |
| 20260503041704 | 60 | 0 | 0.0 | 0.0 | 0.00 | 0.00 | 0.00 | 48 | 1021.6 |
| 20260503041624 | 60 | 0 | 0.0 | 0.0 | 0.00 | 0.00 | 0.00 | 50 | 1021.7 |
| 20260503041504 | 60 | 0 | 0.0 | 0.0 | 0.00 | 0.00 | 0.00 | 51 | 1021.7 |
| 20260503041403 | 60 | 0 | 0.0 | 0.0 | 0.00 | 0.00 | 0.00 | 52 | 1021.7 |
| 20260503041304 | 61 | 0 | 0.0 | 0.0 | 0.00 | 0.00 | 0.00 | 52 | 1021.7 |
| 20260503041203 | 61 | 0 | 0.0 | 0.0 | 0.00 | 0.00 | 0.00 | 52 | 1021.7 |
| 20260503041104 | 61 | 0 | 0.0 | 0.0 | 0.00 | 0.00 | 0.00 | 52 | 1021.7 |
| 20260503041025 | 61 | 0 | 0.0 | 0.0 | 0.00 | 0.00 | 0.00 | 52 | 1021.7 |
| 20260503040904 | 61 | 0 | 0.0 | 0.0 | 0.00 | 0.00 | 0.00 | 52 | 1021.6 |
| 20260503040803 | 61 | 0 | 0.0 | 0.0 | 0.00 | 0.00 | 0.00 | 51 | 1021.7 |
| 20260503040703 | 62 | 0 | 0.0 | 0.0 | 0.00 | 0.00 | 0.00 | 51 | 1021.7 |
| 20260503040624 | 62 | 0 | 0.0 | 0.0 | 0.00 | 0.00 | 0.00 | 51 | 1021.7 |
| 20260503040504 | 62 | 0 | 0.0 | 0.0 | 0.00 | 0.00 | 0.00 | 51 | 1021.7 |
| 20260503040404 | 62 | 0 | 0.0 | 0.0 | 0.00 | 0.00 | 0.00 | 51 | 1021.7 |
| 20260503040303 | 62 | 0 | 0.0 | 0.0 | 0.00 | 0.00 | 0.00 | 52 | 1021.8 |
| 20260503040204 | 62 | 0 | 0.0 | 0.0 | 0.00 | 0.00 | 0.00 | 53 | 1021.8 |
| 20260503040104 | 62 | 0 | 0.0 | 0.0 | 0.00 | 0.00 | 0.00 | 53 | 1021.8 |
| 20260503040004 | 62 | 0 | 0.0 | 0.0 | 0.00 | 0.00 | 0.00 | 53 | 1021.8 |
| 20260503035903 | 62 | 0 | 0.0 | 0.0 | 0.00 | 0.00 | 0.00 | 53 | 1021.8 |
| 20260503035804 | 62 | 0 | 0.0 | 0.0 | 0.00 | 0.00 | 0.00 | 53 | 1021.8 |
| 20260503035724 | 62 | 0 | 0.0 | 0.0 | 0.00 | 0.00 | 0.00 | 54 | 1021.8 |
| 20260503035604 | 62 | 0 | 0.0 | 0.0 | 0.00 | 0.00 | 0.00 | 55 | 1021.8 |
| 20260503035525 | 62 | 0 | 0.0 | 0.0 | 0.00 | 0.00 | 0.00 | 55 | 1021.8 |
| 20260503035404 | 63 | 0 | 0.0 | 0.0 | 0.00 | 0.00 | 0.00 | 54 | 1021.8 |
| 20260503035305 | 63 | 0 | 0.0 | 0.0 | 0.00 | 0.00 | 0.00 | 54 | 1021.8 |
| 20260503035224 | 63 | 0 | 0.0 | 0.0 | 0.00 | 0.00 | 0.00 | 55 | 1021.8 |
| 20260503035125 | 62 | 0 | 0.0 | 0.0 | 0.00 | 0.00 | 0.00 | 55 | 1021.8 |
| 20260503035024 | 62 | 0 | 0.0 | 0.0 | 0.00 | 0.00 | 0.00 | 55 | 1021.7 |
| 20260503034924 | 63 | 0 | 0.0 | 0.0 | 0.00 | 0.00 | 0.00 | 55 | 1021.7 |
| 20260503034803 | 63 | 0 | 0.0 | 0.0 | 0.00 | 0.00 | 0.00 | 55 | 1021.7 |
| 20260503034703 | 62 | 0 | 0.0 | 0.0 | 0.00 | 0.00 | 0.00 | 55 | 1021.7 |
| 20260503034603 | 62 | 0 | 0.0 | 0.0 | 0.00 | 0.00 | 0.00 | 56 | 1021.7 |
| 20260503034504 | 62 | 0 | 0.0 | 0.0 | 0.00 | 0.00 | 0.00 | 56 | 1021.6 |
| 20260503034404 | 62 | 0 | 0.0 | 0.0 | 0.00 | 0.00 | 0.00 | 56 | 1021.6 |
| 20260503034303 | 62 | 0 | 0.0 | 0.0 | 0.00 | 0.00 | 0.00 | 57 | 1021.6 |
| 20260503034203 | 62 | 0 | 0.0 | 0.0 | 0.00 | 0.00 | 0.00 | 56 | 1021.6 |
| 20260503034103 | 63 | 0 | 0.0 | 0.0 | 0.00 | 0.00 | 0.00 | 56 | 1021.6 |
| 20260503034004 | 63 | 0 | 0.0 | 0.0 | 0.00 | 0.00 | 0.00 | 57 | 1021.6 |
| 20260503033925 | 63 | 0 | 0.0 | 0.0 | 0.00 | 0.00 | 0.00 | 57 | 1021.6 |
| 20260503033804 | 63 | 0 | 0.0 | 0.0 | 0.00 | 0.00 | 0.00 | 57 | 1021.5 |
| 20260503033724 | 63 | 0 | 0.0 | 0.0 | 0.00 | 0.00 | 0.00 | 57 | 1021.5 |
| 20260503033604 | 63 | 0 | 0.0 | 0.0 | 0.00 | 0.00 | 0.00 | 57 | 1021.5 |
| 20260503033503 | 63 | 0 | 0.0 | 0.0 | 0.00 | 0.00 | 0.00 | 57 | 1021.5 |
| 20260503033424 | 63 | 0 | 0.0 | 0.0 | 0.00 | 0.00 | 0.00 | 57 | 1021.5 |
| 20260503033303 | 63 | 0 | 0.0 | 0.0 | 0.00 | 0.00 | 0.00 | 58 | 1021.5 |
| 20260503033203 | 63 | 0 | 0.0 | 0.0 | 0.00 | 0.00 | 0.00 | 58 | 1021.5 |
| 20260503033103 | 63 | 0 | 0.0 | 0.0 | 0.00 | 0.00 | 0.00 | 58 | 1021.5 |
| 20260503033004 | 63 | 0 | 0.0 | 0.0 | 0.00 | 0.00 | 0.00 | 58 | 1021.5 |
| 20260503032904 | 63 | 0 | 0.0 | 0.0 | 0.00 | 0.00 | 0.00 | 58 | 1021.5 |
| 20260503032803 | 63 | 0 | 0.0 | 0.0 | 0.00 | 0.00 | 0.00 | 58 | 1021.5 |
| 20260503032704 | 63 | 0 | 0.0 | 0.0 | 0.00 | 0.00 | 0.00 | 58 | 1021.5 |
| 20260503032625 | 63 | 0 | 0.0 | 0.0 | 0.00 | 0.00 | 0.00 | 58 | 1021.5 |
| 20260503032503 | 63 | 0 | 0.0 | 0.0 | 0.00 | 0.00 | 0.00 | 58 | 1021.5 |
| 20260503032424 | 63 | 0 | 0.0 | 0.0 | 0.00 | 0.00 | 0.00 | 58 | 1021.5 |
| 20260503032324 | 63 | 0 | 0.0 | 0.0 | 0.00 | 0.00 | 0.00 | 58 | 1021.4 |
| 20260503032203 | 63 | 0 | 0.0 | 0.0 | 0.00 | 0.00 | 0.00 | 58 | 1021.4 |
| 20260503032103 | 63 | 0 | 0.0 | 0.0 | 0.00 | 0.00 | 0.00 | 58 | 1021.4 |
| 20260503032025 | 63 | 0 | 0.0 | 0.0 | 0.00 | 0.00 | 0.00 | 58 | 1021.4 |
| 20260503031903 | 63 | 0 | 0.0 | 0.0 | 0.00 | 0.00 | 0.00 | 58 | 1021.4 |
| 20260503031804 | 63 | 0 | 0.0 | 0.0 | 0.00 | 0.00 | 0.00 | 58 | 1021.4 |
| 20260503031703 | 63 | 0 | 0.0 | 0.0 | 0.00 | 0.00 | 0.00 | 58 | 1021.4 |
| 20260503031625 | 63 | 0 | 0.0 | 0.0 | 0.00 | 0.00 | 0.00 | 58 | 1021.5 |
| 20260503031504 | 63 | 0 | 0.0 | 0.0 | 0.00 | 0.00 | 0.00 | 58 | 1021.4 |
| 20260503031403 | 63 | 0 | 0.0 | 0.0 | 0.00 | 0.00 | 0.00 | 58 | 1021.4 |
| 20260503031304 | 63 | 0 | 0.0 | 0.0 | 0.00 | 0.00 | 0.00 | 59 | 1021.4 |
| 20260503031203 | 63 | 0 | 0.0 | 0.0 | 0.00 | 0.00 | 0.00 | 59 | 1021.3 |
| 20260503031103 | 63 | 0 | 0.0 | 0.0 | 0.00 | 0.00 | 0.00 | 59 | 1021.4 |
| 20260503031025 | 63 | 0 | 0.0 | 0.0 | 0.00 | 0.00 | 0.00 | 59 | 1021.4 |
| 20260503030903 | 64 | 0 | 0.0 | 0.0 | 0.00 | 0.00 | 0.00 | 59 | 1021.3 |
| 20260503030804 | 64 | 0 | 0.0 | 0.0 | 0.00 | 0.00 | 0.00 | 59 | 1021.3 |
| 20260503030703 | 64 | 0 | 0.0 | 0.0 | 0.00 | 0.00 | 0.00 | 59 | 1021.4 |
| 20260503030603 | 64 | 0 | 0.0 | 0.0 | 0.00 | 0.00 | 0.00 | 59 | 1021.3 |
| 20260503030504 | 64 | 0 | 0.0 | 0.0 | 0.00 | 0.00 | 0.00 | 59 | 1021.3 |
| 20260503030424 | 64 | 0 | 0.0 | 0.0 | 0.00 | 0.00 | 0.00 | 59 | 1021.4 |
| 20260503030324 | 64 | 0 | 0.0 | 0.0 | 0.00 | 0.00 | 0.00 | 60 | 1021.4 |
| 20260503030203 | 64 | 0 | 0.0 | 0.0 | 0.00 | 0.00 | 0.00 | 60 | 1021.4 |
| 20260503030104 | 64 | 0 | 0.0 | 0.0 | 0.00 | 0.00 | 0.00 | 60 | 1021.4 |
| 20260503030004 | 64 | 0 | 0.0 | 0.0 | 0.00 | 0.00 | 0.00 | 60 | 1021.4 |
| 20260503025903 | 64 | 0 | 0.0 | 0.0 | 0.00 | 0.00 | 0.00 | 60 | 1021.4 |
| 20260503025804 | 64 | 0 | 0.0 | 0.0 | 0.00 | 0.00 | 0.00 | 60 | 1021.4 |
| 20260503025703 | 64 | 0 | 0.0 | 0.0 | 0.00 | 0.00 | 0.00 | 60 | 1021.4 |
| 20260503025604 | 64 | 0 | 0.0 | 0.0 | 0.00 | 0.00 | 0.00 | 60 | 1021.4 |
| 20260503025503 | 64 | 0 | 0.0 | 0.0 | 0.00 | 0.00 | 0.00 | 60 | 1021.4 |
| 20260503025404 | 64 | 0 | 0.0 | 0.0 | 0.00 | 0.00 | 0.00 | 60 | 1021.4 |
| 20260503025325 | 64 | 0 | 0.0 | 0.0 | 0.00 | 0.00 | 0.00 | 60 | 1021.3 |
| 20260503025225 | 64 | 0 | 0.0 | 0.0 | 0.00 | 0.00 | 0.00 | 60 | 1021.3 |
| 20260503025104 | 64 | 0 | 0.0 | 0.0 | 0.00 | 0.00 | 0.00 | 60 | 1021.3 |
| 20260503025003 | 64 | 0 | 0.0 | 0.0 | 0.00 | 0.00 | 0.00 | 60 | 1021.3 |
| 20260503024903 | 64 | 0 | 0.0 | 0.0 | 0.00 | 0.00 | 0.00 | 60 | 1021.2 |
| 20260503024824 | 64 | 0 | 0.0 | 0.0 | 0.00 | 0.00 | 0.00 | 60 | 1021.2 |
| 20260503024703 | 63 | 0 | 0.0 | 0.0 | 0.00 | 0.00 | 0.00 | 61 | 1021.2 |
| 20260503024604 | 63 | 0 | 0.0 | 0.0 | 0.00 | 0.00 | 0.00 | 61 | 1021.2 |
| 20260503024504 | 63 | 0 | 0.0 | 0.0 | 0.00 | 0.00 | 0.00 | 61 | 1021.1 |
| 20260503024404 | 63 | 0 | 0.0 | 0.0 | 0.00 | 0.00 | 0.00 | 61 | 1021.1 |
| 20260503024304 | 63 | 0 | 0.0 | 0.0 | 0.00 | 0.00 | 0.00 | 61 | 1021.0 |
| 20260503024204 | 62 | 0 | 0.0 | 0.0 | 0.00 | 0.00 | 0.00 | 62 | 1021.0 |
| 20260503024124 | 62 | 0 | 0.0 | 0.0 | 0.00 | 0.00 | 0.00 | 62 | 1021.0 |
| 20260503024003 | 62 | 0 | 0.0 | 0.0 | 0.00 | 0.00 | 0.00 | 62 | 1020.9 |
| 20260503023903 | 62 | 0 | 0.0 | 0.0 | 0.00 | 0.00 | 0.00 | 62 | 1020.9 |
| 20260503023803 | 62 | 0 | 0.0 | 0.0 | 0.00 | 0.00 | 0.00 | 62 | 1020.8 |
| 20260503023704 | 63 | 0 | 0.0 | 0.0 | 0.00 | 0.00 | 0.00 | 62 | 1020.8 |
| 20260503023604 | 63 | 0 | 0.0 | 0.0 | 0.00 | 0.00 | 0.00 | 62 | 1020.8 |
| 20260503023524 | 63 | 0 | 0.0 | 0.0 | 0.00 | 0.00 | 0.00 | 62 | 1020.8 |
| 20260503023403 | 63 | 0 | 0.0 | 0.0 | 0.00 | 0.00 | 0.00 | 63 | 1020.7 |
| 20260503023304 | 63 | 0 | 0.0 | 0.0 | 0.00 | 0.00 | 0.00 | 63 | 1020.8 |